GFSFLT2_sfc_wetblb_000.txt.gz
Wetbulb
56.89 56.99 48.24 44.62 42.06 43.54 43.37 45.14 44.82 39.75 40.70 40.82 40.46 40.27 40.27 40.29 39.83 40.26 40.51 40.69 41.20 41.72 42.15 42.50 42.59 42.79 42.95
54.45 50.39 46.43 41.03 42.11 42.27 43.15 43.01 43.40 39.37 38.31 38.22 38.91 38.43 38.59 38.23 38.38 38.77 38.69 38.71 39.33 39.74 40.07 40.81 41.50 41.42 42.11
53.55 45.82 41.16 41.92 41.73 43.35 42.94 42.47 41.45 36.33 36.67 37.46 36.27 37.15 37.46 37.70 37.43 37.61 37.08 37.21 38.01 38.50 39.52 39.45 39.86 40.33 40.91
50.85 42.56 40.69 39.84 42.22 43.07 40.62 41.43 39.55 36.95 36.64 35.76 35.24 36.10 36.47 36.40 36.28 35.54 35.40 36.68 37.96 38.51 38.48 38.56 38.53 39.04 40.01
43.56 40.88 39.14 38.10 39.50 41.62 40.19 39.83 36.94 36.00 35.27 35.90 35.69 35.49 35.84 35.65 35.14 34.67 35.69 36.68 37.74 37.46 37.92 38.13 37.75 37.91 38.51
45.10 42.83 40.33 40.74 41.73 40.06 37.50 34.05 32.56 35.88 32.85 33.01 35.19 34.00 34.95 35.49 34.70 34.61 35.19 36.61 36.32 36.60 36.76 36.93 36.76 36.72 37.52
43.86 42.88 42.42 40.00 40.08 37.13 34.93 33.30 32.47 33.78 31.74 30.81 34.76 32.80 35.02 34.75 34.67 34.16 35.01 35.91 35.10 35.51 35.24 35.16 35.33 35.52 35.78
45.58 40.85 40.79 41.35 39.47 37.04 34.64 33.47 32.32 32.21 32.71 29.00 34.10 32.23 34.28 34.68 33.84 33.44 34.58 34.43 34.39 34.42 34.08 34.09 33.93 34.15 34.71
41.03 39.93 39.76 38.42 35.37 33.03 31.03 30.24 29.25 30.47 32.11 29.99 31.47 31.25 31.39 32.12 34.09 32.73 33.20 33.24 33.23 33.19 33.37 33.09 33.16 33.36 33.15
36.21 36.20 35.51 34.55 34.49 34.67 33.00 29.94 28.88 28.33 31.55 28.51 30.15 28.79 26.17 32.20 32.49 32.84 32.51 32.31 32.26 32.35 32.12 32.26 32.34 31.45 31.73
35.42 33.39 32.96 32.91 32.52 32.53 32.36 31.29 29.12 28.72 31.68 30.36 28.36 27.83 26.74 26.77 29.64 31.07 31.40 31.20 31.22 31.37 31.62 32.11 31.83 31.57 30.14
30.32 29.85 30.30 31.10 31.64 31.57 31.29 31.46 31.97 30.90 31.96 29.90 26.17 25.55 24.47 23.25 24.33 30.11 30.27 30.79 30.67 30.05 30.74 31.91 32.24 32.02 32.05
28.24 29.00 30.57 31.70 30.83 29.52 30.18 29.84 29.69 30.23 30.49 30.28 28.55 27.52 25.10 23.14 23.11 24.89 26.26 28.58 29.75 29.34 29.84 29.48 29.32 29.66 27.92
27.78 29.39 29.73 28.85 28.26 29.33 28.09 28.25 27.67 28.48 29.65 29.87 28.70 27.00 24.21 25.51 25.36 24.47 26.62 24.54 28.45 28.60 29.01 28.99 29.82 30.54 29.95
27.33 26.70 27.33 27.73 27.18 28.03 28.19 27.22 26.28 26.74 27.61 29.04 29.37 27.88 26.85 25.32 22.59 25.02 25.97 26.69 28.16 28.16 27.86 26.94 28.66 30.40 30.80
27.29 27.62 27.07 26.93 26.14 26.66 27.36 26.64 26.00 26.30 26.42 27.49 25.43 24.55 26.30 28.44 27.31 24.32 25.79 25.89 27.28 27.65 27.48 25.90 27.38 30.43 31.53
28.32 28.41 27.37 27.30 27.01 25.81 25.65 25.89 25.23 26.02 26.70 25.66 23.43 22.40 20.32 20.13 26.58 27.74 23.27 24.65 25.34 24.90 27.23 26.93 26.57 28.44 30.02

GFSFLT2_sfc_wetblb_003.txt.gz
Wetbulb
56.49 55.68 46.56 42.94 42.12 43.12 43.51 43.49 42.95 44.51 44.12 43.78 42.28 41.86 41.71 41.23 41.26 40.86 40.90 41.31 41.53 42.18 42.88 43.16 42.98 43.28 43.57
55.31 55.09 47.86 44.51 43.16 42.13 42.72 44.17 43.70 42.27 42.09 40.89 40.46 40.77 40.46 40.11 40.17 39.85 39.58 39.73 39.66 40.01 40.58 41.18 41.87 41.98 42.33
53.52 53.16 46.99 43.55 41.13 42.33 42.82 42.07 42.53 41.46 40.06 39.62 40.21 39.34 39.13 39.64 39.42 39.22 38.66 38.39 38.12 38.34 39.04 40.28 40.49 40.94 41.58
52.51 44.51 44.21 43.70 42.63 40.44 40.29 41.50 40.51 40.61 38.41 38.21 38.74 38.27 38.44 38.46 38.41 37.86 37.28 36.85 37.63 38.51 39.43 39.04 39.23 39.24 40.04
50.88 43.84 42.58 41.40 40.34 42.11 40.50 40.69 39.69 37.07 34.85 35.15 35.07 34.94 34.78 37.06 37.09 36.93 36.53 36.73 37.63 38.46 38.79 38.64 38.64 38.72 38.77
50.17 45.97 45.80 44.27 43.01 40.63 38.65 35.51 31.83 35.03 32.66 32.07 33.47 32.00 32.83 33.11 36.69 36.82 36.17 36.48 37.05 38.22 37.34 37.48 37.33 37.23 37.22
50.08 48.16 47.75 44.71 42.69 39.32 36.92 34.39 32.14 32.31 31.05 29.00 32.50 30.70 32.54 34.40 36.80 36.50 36.22 35.75 36.69 37.10 36.46 36.32 36.00 36.02 36.15
52.32 50.77 46.79 43.66 41.81 40.24 36.84 33.29 31.59 30.83 31.38 27.99 31.38 30.14 31.53 31.97 36.43 36.38 35.02 35.54 35.54 35.47 35.68 35.51 35.22 35.29 35.39
45.68 45.11 44.36 43.14 38.77 35.17 31.05 30.15 28.43 28.62 30.72 29.43 29.00 28.29 28.93 29.44 30.98 34.93 34.26 34.62 35.04 34.69 34.75 34.72 34.90 34.58 33.04
39.33 39.87 38.73 37.45 37.04 34.67 32.15 30.59 29.20 27.20 30.67 27.95 27.95 26.46 24.43 28.69 28.57 29.23 29.06 33.66 34.07 33.96 34.21 34.26 33.89 29.84 28.74
34.03 32.11 32.07 31.51 32.04 33.09 33.63 32.45 29.11 28.86 31.35 29.96 27.06 26.02 25.10 24.05 26.24 27.05 27.22 27.89 27.79 29.11 33.00 33.57 33.60 32.61 27.71
32.56 30.76 30.11 30.17 30.67 31.26 31.91 32.05 32.02 31.17 30.36 28.99 23.48 23.00 21.67 21.27 21.09 25.11 25.74 27.18 27.36 26.69 26.54 31.12 33.29 33.43 33.92
31.64 30.12 30.30 30.72 30.97 30.21 30.24 30.12 30.04 30.36 30.70 28.88 26.33 24.78 25.69 22.34 20.47 21.80 23.67 24.89 26.93 25.94 25.35 25.34 25.75 26.12 25.27
29.68 29.83 29.80 28.75 28.34 29.10 27.80 27.65 27.56 27.61 29.61 28.10 26.61 26.16 23.70 22.69 22.48 22.42 24.06 21.92 24.12 24.86 24.81 26.03 26.72 27.41 27.33
28.49 27.78 27.58 27.99 27.88 28.90 28.72 27.17 26.47 26.17 26.13 27.49 27.74 27.03 25.47 23.65 21.28 21.95 22.26 23.27 24.55 24.31 24.15 24.16 25.75 26.75 27.35
27.81 27.34 26.82 26.81 26.50 27.50 27.73 26.63 25.35 25.37 24.27 24.99 21.79 19.89 21.28 24.86 28.16 22.34 23.03 22.53 23.66 23.96 24.09 22.28 22.96 26.17 27.26
27.59 27.46 27.50 26.52 26.38 26.12 26.10 25.91 24.98 24.54 23.98 20.72 17.51 16.08 14.34 15.25 22.51 30.91 22.71 22.59 22.47 21.59 22.62 22.90 22.97 24.73 26.75

GFSFLT2_sfc_wetblb_006.txt.gz
Wetbulb
56.99 57.02 51.65 51.85 49.32 46.38 46.63 46.43 48.60 51.71 50.96 49.18 47.95 46.95 46.00 45.05 43.60 42.60 41.87 41.29 41.64 42.01 42.58 43.37 43.92 43.84 43.80
55.84 55.80 49.61 47.61 47.34 44.71 45.30 45.77 45.44 48.28 48.62 47.56 46.48 45.14 44.19 43.04 41.63 41.26 40.59 40.01 40.25 40.35 40.65 41.11 42.03 42.40 43.18
54.48 55.59 48.16 45.81 43.90 44.03 43.42 43.54 43.54 45.85 46.77 45.56 44.53 43.43 42.75 41.11 40.61 40.62 40.28 39.64 39.54 39.27 39.17 39.65 40.55 41.80 41.90
54.14 52.90 44.61 43.21 44.43 42.88 40.24 41.58 40.27 41.94 42.79 41.33 41.72 42.04 41.14 40.43 40.05 39.42 39.13 38.94 38.86 38.55 38.75 39.28 40.19 40.04 40.76
52.98 48.53 43.06 40.20 41.29 43.02 42.39 40.93 40.68 38.40 36.02 35.48 34.39 33.80 33.61 38.38 38.18 38.47 38.25 38.09 37.84 38.27 38.83 39.58 39.54 39.44 39.72
52.98 50.53 48.27 46.74 43.77 42.88 42.23 37.41 34.74 35.98 33.70 31.97 31.57 29.80 31.30 30.59 36.57 37.59 37.61 37.65 37.43 37.77 38.22 39.18 38.19 38.17 38.26
53.38 52.43 50.90 48.96 45.28 42.20 41.88 39.17 34.43 32.33 31.79 28.78 29.01 27.74 29.80 33.53 37.25 37.65 37.81 37.43 37.30 37.17 37.79 37.94 37.75 37.48 37.39
54.70 54.73 53.74 51.66 47.39 44.86 41.94 34.19 30.99 31.84 31.29 27.53 28.42 27.19 29.56 30.44 37.22 37.45 37.43 37.47 36.62 36.75 36.81 36.48 36.57 36.66 36.60
51.07 51.77 51.21 49.35 45.78 38.62 34.06 33.12 28.00 28.35 30.04 28.10 25.98 26.45 27.55 27.83 28.81 35.13 36.07 35.69 35.79 35.94 36.32 36.09 35.84 36.07 33.95
41.54 43.49 44.66 44.44 43.83 41.53 35.42 32.72 30.29 27.84 29.98 27.54 25.54 25.47 23.66 26.97 26.52 27.33 27.66 34.39 34.81 34.97 35.23 35.26 35.41 29.44 27.09
35.95 34.51 34.28 33.76 34.00 34.52 35.32 34.01 30.03 28.74 30.28 27.71 23.15 25.03 24.34 23.64 24.96 24.99 24.13 24.16 24.57 26.61 32.36 33.64 34.01 32.70 26.38
32.92 32.11 31.30 31.30 31.74 32.22 32.23 31.72 31.58 30.70 32.27 26.02 21.77 21.68 16.86 20.59 20.30 22.55 21.83 23.02 23.17 24.19 24.16 29.35 32.75 33.78 34.43
32.51 31.86 31.76 31.43 30.98 30.27 30.22 30.05 30.10 30.60 29.45 25.97 22.98 20.30 18.60 16.84 17.76 18.85 21.27 22.66 24.25 24.23 22.82 23.17 23.27 23.93 22.96
33.09 31.73 31.05 29.70 28.36 28.62 26.99 27.00 26.13 26.03 28.64 25.87 24.37 19.70 16.07 18.52 19.20 19.85 20.29 20.59 21.80 22.29 22.39 23.51 23.68 24.38 24.48
30.38 29.32 28.76 28.37 27.43 28.04 27.16 27.06 26.32 24.77 23.95 24.69 23.38 22.24 21.38 17.55 21.21 21.44 21.00 20.77 21.85 22.34 21.39 21.61 22.95 23.52 24.23
29.24 28.79 27.77 27.33 26.71 27.74 27.37 26.52 25.21 23.79 21.76 18.09 16.94 16.17 14.90 19.97 26.76 19.95 19.42 21.13 21.86 21.15 21.18 20.26 20.77 22.99 24.28
28.45 27.93 27.77 26.94 27.18 26.48 26.44 25.73 23.69 20.71 16.64 12.92 10.62 8.80 6.18 8.46 18.89 29.41 22.36 23.26 22.42 21.43 21.13 20.09 20.02 22.36 24.44

GFSFLT2_sfc_wetblb_009.txt.gz
Wetbulb
56.72 57.39 56.15 54.81 54.64 53.78 53.84 52.39 52.54 55.10 56.00 55.39 54.88 54.39 52.95 51.04 49.81 48.64 47.62 46.64 45.52 45.08 45.11 45.11 45.35 45.48 45.13
55.88 56.26 55.93 54.93 54.89 51.01 49.82 50.29 49.81 52.31 53.99 54.13 53.70 52.17 50.75 49.15 47.92 46.71 45.34 44.46 43.56 43.13 43.14 43.06 43.17 43.57 43.92
54.91 56.48 55.89 47.26 45.60 46.01 46.66 46.86 46.58 48.34 52.26 52.73 51.56 50.18 48.78 47.40 46.38 45.03 43.55 42.92 42.04 41.39 41.10 40.88 41.08 41.82 42.82
54.53 54.74 55.14 46.03 47.95 47.24 43.26 44.43 43.88 44.50 48.09 49.12 49.47 48.65 47.64 46.07 44.96 42.80 42.29 41.91 41.73 41.02 40.23 39.33 39.59 40.45 41.77
52.29 53.18 52.72 42.07 43.95 46.29 46.61 45.35 42.62 42.21 42.33 43.86 43.30 42.75 42.54 44.48 41.53 41.47 41.15 40.76 40.69 40.17 39.66 39.62 39.75 40.17 40.93
50.67 50.77 51.47 48.84 48.68 47.22 45.51 39.49 37.13 40.78 38.77 37.84 38.74 37.42 37.24 36.67 39.24 40.22 40.55 40.02 39.78 39.28 39.06 38.94 39.28 40.04 39.35
50.24 50.86 51.73 53.05 51.25 47.76 45.96 43.04 42.21 37.54 38.64 35.57 34.68 33.85 34.40 35.69 38.32 38.94 39.03 39.03 38.96 38.63 38.35 38.38 38.84 39.19 38.53
50.81 52.19 53.41 54.27 52.80 50.50 47.96 41.82 33.04 34.38 36.71 31.07 31.60 31.92 32.19 32.44 37.78 38.64 38.85 38.86 38.67 38.29 38.25 37.83 37.81 37.49 37.59
48.28 48.28 49.67 51.58 52.44 41.81 35.90 35.80 31.53 30.90 31.48 30.97 29.60 29.61 29.97 29.74 31.34 37.99 38.42 38.35 38.15 38.14 37.50 37.18 36.85 37.00 34.89
45.32 46.58 45.85 48.31 50.21 48.30 43.58 39.23 31.96 28.67 30.30 29.19 28.33 28.40 25.72 27.97 27.66 28.00 29.83 36.62 36.90 36.68 36.89 36.61 36.33 29.65 27.54
43.88 38.15 34.95 34.89 34.99 36.07 37.58 39.22 33.52 31.91 31.46 30.52 27.66 26.27 25.43 24.90 25.61 26.24 25.56 25.09 25.13 27.01 33.19 34.49 34.59 32.65 25.72
38.22 34.24 32.29 31.98 32.03 32.43 32.75 32.43 32.65 33.11 32.38 30.50 26.64 25.92 24.06 22.87 22.49 22.53 22.24 22.80 22.61 22.86 23.45 28.19 32.23 33.77 34.38
34.57 32.17 31.80 32.00 31.73 30.07 30.58 31.01 31.01 31.09 29.98 27.97 26.10 23.43 23.21 21.35 20.41 19.79 21.43 22.39 22.61 21.91 22.20 22.42 22.42 23.14 21.16
31.94 31.52 31.42 30.30 28.91 29.64 27.80 28.09 27.10 26.50 28.21 26.77 24.23 23.30 21.13 19.31 20.64 18.68 19.98 19.20 20.70 20.63 21.32 21.93 22.79 23.46 23.50
30.47 29.78 29.05 28.19 27.13 27.86 27.28 27.16 25.18 24.39 24.67 26.32 26.19 24.67 20.29 17.71 14.52 18.86 19.83 19.59 21.09 21.29 20.80 20.70 21.84 22.92 23.51
29.67 29.25 27.74 26.87 26.22 26.81 26.91 26.58 25.26 24.30 22.44 23.80 22.93 21.40 15.53 18.52 25.51 18.75 19.08 19.62 20.42 21.17 21.46 19.23 20.07 22.28 22.86
28.89 28.06 27.51 27.00 27.01 26.04 26.29 26.13 24.59 21.75 17.13 13.81 15.32 9.59 5.19 10.61 17.76 27.89 20.87 21.73 21.87 21.20 21.46 20.79 20.08 21.35 22.84

GFSFLT2_sfc_wetblb_012.txt.gz
Wetbulb
56.26 57.68 57.34 56.89 55.61 55.21 55.18 55.08 55.14 55.27 56.72 56.82 56.57 56.80 57.28 57.35 57.29 56.67 55.44 54.03 52.94 52.07 51.13 49.82 48.43 48.05 48.02
52.01 53.56 54.98 56.46 57.14 56.19 54.63 54.71 55.19 54.82 55.55 55.84 56.44 56.47 56.39 56.16 55.09 53.80 52.60 51.49 50.47 49.66 48.60 47.41 46.99 47.05 47.24
49.90 51.85 53.24 54.86 54.34 52.56 54.69 53.77 52.66 52.92 54.66 54.80 55.96 55.85 55.45 54.76 52.92 51.39 50.22 49.11 47.85 46.67 45.47 44.91 45.33 45.38 45.51
48.83 49.42 50.60 52.12 50.63 51.81 50.54 46.88 48.47 48.75 49.78 51.60 53.91 54.34 54.54 53.73 51.42 49.45 47.98 46.74 45.91 44.82 43.44 42.92 42.86 42.81 43.18
46.10 48.31 48.78 48.88 46.74 48.94 48.32 49.98 47.28 48.31 46.00 47.42 49.94 51.10 50.92 51.22 48.51 47.06 46.07 44.87 44.39 43.72 43.11 42.36 41.63 41.19 41.66
43.45 43.72 45.49 48.39 49.84 49.88 48.80 47.76 45.51 43.12 42.90 43.62 46.03 45.27 46.03 46.81 46.45 46.10 44.37 43.77 43.31 42.91 42.34 41.85 41.26 40.87 40.97
40.72 41.47 42.69 45.70 48.57 48.29 48.79 47.98 46.72 41.88 42.77 40.90 40.08 41.64 39.98 41.64 45.15 43.93 43.27 42.36 41.94 41.50 41.22 40.81 40.52 40.22 40.44
41.30 41.51 42.92 44.60 45.91 47.50 47.94 49.24 38.63 37.63 41.67 36.82 35.04 36.58 35.30 37.81 43.89 43.02 41.98 40.94 40.68 40.62 40.70 40.17 39.43 39.32 39.90
43.93 44.26 44.77 45.63 46.05 45.51 44.11 39.24 37.54 34.81 35.51 33.61 31.24 30.45 32.10 32.55 37.27 40.62 39.90 39.31 40.03 40.06 40.06 39.41 39.00 38.60 37.22
42.21 43.30 44.28 44.01 45.52 44.93 44.18 41.71 39.21 31.30 32.53 32.95 29.72 29.54 27.22 29.48 31.20 32.05 35.70 39.05 39.51 39.69 39.57 39.28 38.48 32.57 29.74
39.81 41.26 42.39 42.47 37.56 36.12 36.68 42.52 41.22 33.48 33.11 32.35 29.10 27.22 27.63 25.49 27.52 29.72 30.12 29.58 31.90 34.98 38.36 38.12 37.78 34.60 27.02
35.46 37.24 39.06 35.42 32.55 32.64 32.91 33.16 33.88 33.87 34.58 32.14 28.21 27.32 25.46 24.26 23.83 24.61 24.72 25.69 26.31 25.39 24.95 29.98 34.77 35.82 35.72
33.62 34.21 34.04 33.12 31.62 30.47 30.67 29.97 29.01 29.51 29.33 29.01 28.67 26.79 26.28 24.78 22.15 21.73 22.64 23.50 23.02 22.45 22.31 22.34 22.58 23.31 21.31
32.36 33.34 31.51 29.91 28.82 29.53 28.85 28.47 26.36 24.81 27.26 27.42 26.70 25.34 22.77 23.31 22.37 20.61 20.85 19.66 21.14 21.00 21.46 21.78 22.42 22.89 22.44
31.17 30.65 29.50 27.96 27.38 28.32 28.23 27.14 24.96 24.10 23.90 25.27 25.69 24.53 22.43 19.93 17.14 17.71 18.65 18.42 20.26 20.54 20.78 20.21 21.31 22.43 22.86
30.07 29.38 28.01 26.69 26.45 26.95 27.74 26.12 24.25 24.03 22.97 23.80 22.04 18.07 16.88 19.00 22.92 15.69 19.11 19.51 19.91 20.61 20.84 19.46 19.60 20.81 22.06
28.76 28.22 27.48 26.75 26.74 26.07 26.57 26.08 24.02 21.68 18.29 18.81 13.26 7.08 6.97 9.81 16.89 26.44 19.65 20.15 20.78 20.45 21.01 20.31 20.03 20.80 22.04

GFSFLT2_sfc_wetblb_015.txt.gz
Wetbulb
49.02 50.76 51.27 52.31 54.12 55.81 55.50 55.46 55.76 55.81 56.92 56.97 56.37 56.22 56.47 56.59 57.06 57.92 58.85 59.41 59.59 60.28 60.57 58.91 57.16 55.05 53.20
45.41 47.30 48.78 51.02 52.23 52.54 54.10 55.78 55.37 55.64 56.42 56.25 56.04 56.05 56.20 56.18 56.06 56.55 56.87 57.54 58.12 58.51 58.35 57.54 55.58 53.78 51.95
43.03 46.37 47.49 49.91 50.39 51.55 52.06 53.45 54.84 53.93 55.52 55.83 56.15 55.94 55.71 55.85 55.80 55.79 55.74 56.00 56.12 55.51 55.03 54.30 52.92 51.34 50.05
39.26 40.18 42.08 44.62 47.30 47.47 48.33 49.81 50.13 52.04 52.59 53.12 53.98 54.26 54.94 55.40 55.25 54.50 54.17 54.12 53.93 52.99 51.79 50.44 48.68 47.94 47.97
36.05 37.31 39.18 40.98 40.97 44.36 45.09 47.04 48.69 48.82 48.77 50.48 49.97 50.33 51.47 53.32 53.32 52.76 52.81 52.65 51.75 51.23 49.64 47.62 46.16 45.98 45.70
34.26 33.53 35.38 37.44 40.27 41.27 42.31 42.46 42.22 48.14 48.11 47.81 49.44 47.34 49.27 50.85 52.48 53.04 51.12 50.50 49.71 48.23 46.73 45.32 44.44 43.76 43.43
33.72 34.54 35.62 37.75 39.47 38.92 39.41 39.70 40.53 45.94 44.59 44.71 44.21 44.68 47.18 45.90 50.35 50.16 49.10 48.07 47.09 46.32 45.08 43.93 43.21 42.37 41.86
36.09 37.52 39.08 40.55 40.74 40.82 40.54 40.33 41.18 42.89 44.27 41.29 42.33 41.14 37.98 40.44 48.08 48.35 47.39 46.11 45.41 44.79 44.08 43.04 42.12 41.66 41.39
41.57 42.07 42.10 42.95 43.66 42.45 40.05 38.67 37.58 40.31 39.78 41.49 36.94 32.52 33.25 35.06 42.47 46.73 45.38 44.64 43.90 43.18 42.72 41.74 41.02 41.12 40.03
36.94 37.01 38.81 38.07 40.86 41.40 41.71 38.82 38.56 38.58 36.34 36.75 31.26 30.44 28.66 30.18 32.89 42.04 41.42 42.66 41.89 41.01 40.95 41.30 40.97 36.82 33.56
33.60 33.73 33.96 35.10 37.68 38.84 38.55 37.75 36.71 36.39 39.60 36.13 30.63 29.45 28.88 25.98 28.99 31.18 32.24 36.06 36.67 38.92 40.88 40.83 40.09 36.14 31.77
31.69 31.82 32.09 33.67 34.80 35.28 33.79 33.07 33.20 32.57 36.69 33.63 30.16 28.34 25.84 24.93 24.32 26.55 28.15 29.35 31.19 32.19 33.52 39.01 40.19 39.39 36.46
30.60 30.91 32.26 33.15 32.45 30.76 30.73 29.69 28.12 27.94 28.65 30.49 29.77 28.53 27.83 25.25 23.09 23.27 24.66 25.27 27.21 27.40 26.82 27.39 27.02 26.26 29.82
30.86 31.65 32.27 31.26 28.92 29.46 28.71 27.85 25.57 24.40 26.45 27.78 27.11 27.27 24.64 24.59 25.28 24.80 24.41 23.52 24.30 23.92 24.18 23.66 23.87 24.50 24.22
30.21 29.09 28.68 29.56 27.84 28.25 28.13 27.13 24.67 23.48 23.07 24.90 25.46 25.15 24.14 23.64 22.30 23.05 21.24 20.53 22.04 21.40 21.58 20.78 21.50 22.03 22.57
29.38 28.24 27.69 27.81 26.72 27.05 27.55 25.93 23.92 23.53 22.90 23.69 23.03 21.60 20.99 22.68 24.72 19.02 19.57 19.47 20.31 20.82 20.46 18.84 18.95 20.53 22.00
29.02 28.05 27.37 27.06 27.55 26.38 26.44 25.21 23.15 21.97 19.50 18.31 17.53 16.31 14.58 12.68 17.62 24.72 18.88 19.57 19.72 19.52 20.05 19.79 19.35 20.65 21.96

GFSFLT2_sfc_wetblb_018.txt.gz
Wetbulb
42.17 43.25 38.76 42.04 47.26 50.13 51.21 52.03 53.12 54.81 56.50 56.81 56.61 56.49 56.43 56.29 56.74 57.50 58.20 58.72 59.29 60.54 61.47 61.60 61.64 61.54 61.15
36.88 37.07 37.69 42.18 42.55 42.34 45.23 48.65 50.49 53.08 54.86 55.41 55.84 56.00 56.16 56.17 56.11 56.17 56.26 56.70 57.36 58.24 59.63 60.34 60.54 61.06 60.85
33.68 36.12 37.29 38.60 39.83 41.24 42.95 45.59 48.55 49.97 52.76 53.88 54.65 55.15 55.42 55.77 55.63 55.51 55.22 55.25 55.52 55.89 56.87 58.15 58.91 60.17 60.06
34.30 34.01 34.77 36.61 37.18 36.73 37.43 40.67 41.31 45.28 48.24 50.11 52.32 53.05 54.07 54.65 54.69 53.82 53.56 54.01 54.99 55.48 55.44 55.52 56.29 57.94 58.06
32.78 33.27 32.66 32.62 32.57 34.90 35.81 37.36 39.40 42.01 42.96 45.35 47.23 49.23 50.03 51.58 51.21 51.23 52.13 53.17 53.57 54.56 55.30 55.68 55.49 56.09 55.33
31.14 30.23 30.49 31.76 33.15 33.75 35.21 35.02 33.89 41.12 40.77 41.58 44.39 45.84 48.56 49.57 50.59 51.02 51.52 52.24 52.88 53.54 54.15 54.60 53.26 52.16 51.32
30.86 30.84 31.15 33.34 34.16 33.96 35.56 35.95 35.91 38.92 39.78 38.12 41.57 40.88 44.43 47.31 49.43 49.97 50.62 51.35 52.19 52.61 52.88 51.23 49.75 49.43 49.03
34.13 34.52 35.25 36.37 37.20 37.25 36.11 36.87 38.51 39.56 40.97 36.70 40.37 40.30 43.84 44.75 46.10 47.63 48.72 49.69 50.35 50.94 49.40 47.82 47.12 46.19 45.41
36.88 37.88 38.53 39.18 38.19 35.81 34.32 33.05 32.81 35.96 40.47 39.26 39.92 40.50 34.27 35.30 38.82 43.99 46.90 49.33 48.65 47.56 46.44 45.64 44.68 44.30 42.96
33.94 33.94 34.38 34.58 36.72 34.82 33.85 31.51 32.50 31.33 38.50 38.55 39.18 33.86 32.52 31.09 33.57 37.79 45.69 47.66 46.89 45.73 44.96 44.04 43.20 38.68 37.94
29.38 30.47 31.62 32.72 33.37 33.93 35.18 33.43 31.22 30.16 34.27 35.88 34.30 31.60 31.00 28.23 29.46 31.45 40.02 42.66 41.81 42.65 43.41 42.45 41.52 38.46 35.39
27.70 28.65 29.14 30.43 31.62 32.47 33.04 33.07 31.22 28.85 29.48 29.82 31.46 32.21 27.73 25.85 27.04 28.47 30.77 32.34 35.64 35.66 37.18 40.48 41.45 39.80 38.36
26.29 27.26 28.28 30.83 31.53 30.89 31.47 30.76 29.35 27.47 26.81 27.95 30.45 29.30 29.10 26.63 24.43 24.42 26.63 26.89 31.83 31.47 34.56 36.74 36.76 36.22 35.02
25.81 27.13 28.01 29.37 28.40 29.92 28.31 27.97 26.06 25.69 27.24 27.37 26.31 27.53 25.14 26.23 27.35 25.54 26.60 25.34 27.45 28.90 28.70 27.40 28.55 31.89 33.86
24.95 25.17 25.61 28.05 27.53 29.24 27.53 27.21 24.49 23.37 23.20 24.88 25.84 26.20 25.75 25.94 23.82 24.68 23.64 24.40 25.72 24.92 25.88 24.11 24.73 25.67 26.84
24.22 24.58 25.94 26.74 26.54 27.66 27.30 25.54 23.43 22.88 21.93 22.12 21.76 22.64 22.99 24.65 26.82 21.91 21.82 21.68 23.11 23.39 23.97 22.09 21.25 22.67 24.06
23.61 24.85 27.15 26.56 26.73 26.06 25.88 24.57 22.30 21.24 19.18 18.77 17.42 18.28 18.25 16.12 20.31 26.27 20.60 20.95 21.25 20.59 21.31 20.88 20.18 21.15 22.77

GFSFLT2_sfc_wetblb_021.txt.gz
Wetbulb
39.61 40.73 41.81 41.30 41.43 42.38 44.12 43.70 46.21 48.26 48.70 51.22 51.73 52.54 53.68 54.74 55.60 56.44 57.23 57.97 58.68 59.40 60.38 60.81 61.78 61.81 61.66
36.36 38.29 37.94 39.43 40.18 40.28 41.61 43.14 43.56 45.51 47.34 49.79 47.92 49.45 51.75 53.42 54.18 54.74 55.16 56.05 56.67 57.47 58.42 59.40 60.58 60.73 61.67
34.00 36.55 37.13 38.16 38.10 38.80 39.01 40.52 41.84 43.57 44.55 45.47 46.37 48.08 48.75 49.77 51.80 53.17 53.78 54.43 55.10 55.30 55.84 56.71 57.65 58.66 59.62
34.03 34.07 34.81 36.16 36.81 33.71 33.53 37.22 37.89 40.23 41.77 42.81 44.45 45.98 47.92 49.04 50.13 50.75 51.56 52.80 54.26 54.83 54.69 54.50 54.75 56.04 57.68
32.13 32.56 32.78 33.22 32.51 34.26 32.88 33.92 35.21 37.14 37.49 40.00 42.40 44.34 46.63 45.99 46.48 49.22 50.54 51.46 52.09 52.77 53.76 54.60 54.12 54.25 55.32
31.30 30.38 31.21 32.14 33.67 33.65 33.50 32.85 31.33 39.74 38.28 39.87 41.64 40.62 43.24 44.81 45.94 46.46 47.34 50.08 50.86 51.92 52.30 52.53 52.83 53.05 53.96
30.05 30.84 31.21 32.82 32.95 33.15 32.42 32.96 32.94 36.38 37.90 34.75 38.86 38.16 42.05 43.14 45.03 45.58 46.48 48.28 49.36 49.88 50.38 51.11 51.81 52.57 52.99
32.35 32.07 33.13 34.77 35.02 34.94 34.52 34.52 34.72 36.35 37.08 32.80 36.85 36.68 40.59 42.68 44.85 45.75 46.90 47.84 48.02 48.44 48.92 49.63 50.59 50.88 52.22
34.15 35.13 35.77 35.86 34.97 33.27 31.77 31.28 30.88 32.24 36.47 33.87 35.87 35.36 37.81 41.11 43.07 44.42 44.57 45.21 46.37 47.20 48.43 48.65 49.60 49.30 48.97
31.58 31.80 32.35 32.93 34.19 33.43 32.08 29.88 30.14 28.69 35.20 32.31 33.01 32.84 33.21 34.59 34.74 36.28 37.99 41.70 43.71 45.56 48.45 48.14 46.05 43.32 43.11
27.81 28.01 29.53 30.86 31.65 32.64 32.73 31.93 29.59 29.10 33.34 32.76 31.33 31.60 32.17 33.66 33.51 35.34 34.46 40.89 44.91 46.49 46.35 45.14 43.59 41.61 39.06
25.55 26.40 27.73 28.17 29.44 31.06 31.07 33.20 32.70 31.13 34.20 30.44 27.92 29.59 29.98 31.14 30.99 31.50 31.11 35.77 41.81 40.86 40.20 41.29 41.56 41.13 40.38
24.90 25.85 27.09 28.22 28.73 29.50 30.95 32.23 32.16 32.09 31.18 28.83 27.76 28.14 29.29 30.89 28.88 28.38 29.90 29.69 35.75 36.75 36.59 35.34 34.93 36.42 36.68
24.79 26.46 27.35 26.89 26.68 28.49 30.09 30.22 29.37 29.14 29.31 28.96 28.43 28.99 30.04 31.79 31.26 29.95 28.71 28.66 31.89 31.59 31.25 34.75 35.63 36.49 36.48
24.65 24.72 25.10 25.58 26.32 30.24 29.56 29.10 27.04 25.20 25.33 26.88 28.27 29.23 29.03 30.07 26.81 28.29 28.63 28.05 30.52 30.20 29.19 27.14 28.99 34.26 34.02
24.51 24.31 24.27 25.14 26.94 28.94 29.06 26.53 24.32 23.50 22.77 22.99 22.88 24.70 26.57 26.66 29.13 25.23 25.54 25.32 27.58 29.28 29.48 26.60 25.27 28.62 32.78
23.55 24.01 24.14 26.10 27.25 27.38 26.30 25.20 23.75 22.61 21.24 21.03 20.22 21.23 22.65 19.50 23.77 28.26 23.94 24.88 25.45 24.88 26.89 27.18 25.94 25.85 29.54

GFSFLT2_sfc_wetblb_024.txt.gz
Wetbulb
38.79 39.79 39.14 39.36 40.63 41.21 41.91 41.17 42.70 43.03 43.63 44.14 44.40 45.55 47.95 48.99 48.89 50.47 52.75 54.12 55.23 56.35 57.41 58.52 59.41 59.37 60.43
35.97 36.99 37.55 38.53 39.49 38.83 39.58 40.38 40.75 41.56 41.82 42.42 42.97 44.02 44.99 46.40 47.62 48.73 49.33 50.52 52.78 54.92 55.91 56.92 58.02 59.04 59.58
33.74 36.86 37.20 38.12 37.30 37.95 38.13 38.86 39.57 40.26 40.65 40.91 41.79 42.84 43.15 44.49 45.60 47.12 48.13 49.27 51.38 52.58 53.90 55.26 56.45 57.28 58.06
33.77 34.11 35.37 36.50 36.66 35.30 35.24 37.59 37.37 39.19 40.18 40.63 41.43 41.83 42.67 43.52 44.94 45.82 46.68 46.40 49.53 51.75 52.71 53.23 53.98 55.33 56.61
32.48 33.14 32.80 32.76 32.48 34.68 33.93 34.76 35.63 37.59 38.04 39.41 39.74 41.57 42.68 43.60 44.25 43.92 45.23 46.35 47.87 47.64 51.09 52.77 52.98 53.60 54.77
31.93 30.44 30.50 31.78 33.42 32.58 32.26 31.38 30.14 37.74 35.93 36.51 39.38 39.13 40.99 42.31 43.36 44.86 44.89 45.26 46.10 46.87 47.46 49.66 51.68 52.21 52.66
30.62 30.77 30.58 32.45 32.75 31.73 32.25 32.25 32.15 33.95 34.22 31.62 37.55 37.25 40.14 39.80 41.87 42.76 44.00 45.04 45.69 46.28 47.05 48.85 49.73 50.22 50.91
32.38 32.19 32.85 33.79 33.56 33.08 32.58 32.84 33.91 35.63 36.33 31.50 36.96 36.04 38.93 40.26 40.81 41.75 43.07 44.86 45.47 46.06 47.01 48.21 48.08 48.41 49.47
33.78 34.26 34.29 34.42 33.71 31.53 30.33 29.63 28.50 31.56 35.06 33.24 34.15 34.46 35.37 35.92 39.11 40.28 42.23 43.96 45.54 45.94 46.43 47.02 47.32 47.77 48.88
31.66 31.89 31.42 31.71 32.66 31.47 31.18 27.80 28.42 28.17 32.78 31.34 31.83 32.80 30.62 36.41 39.35 37.31 37.77 40.12 41.97 43.16 44.32 45.28 46.26 46.22 45.92
28.71 28.59 29.38 30.14 30.72 31.38 30.92 29.60 27.48 28.25 31.97 32.43 31.38 31.43 31.53 30.95 34.08 36.88 37.88 39.50 39.46 41.00 44.34 45.96 46.92 45.76 43.57
26.44 26.53 27.04 27.51 28.76 29.88 30.25 30.32 30.85 30.16 31.71 32.59 29.69 30.25 29.17 28.55 28.82 34.67 37.70 34.85 35.30 39.77 42.19 45.80 45.90 45.34 45.40
25.34 25.65 26.75 27.75 28.83 29.19 30.26 30.65 31.07 31.68 32.51 31.61 29.77 28.79 28.23 27.05 27.50 32.35 33.50 31.73 36.28 35.37 35.17 36.72 38.23 39.91 39.70
25.03 26.26 27.28 27.41 27.28 28.55 27.90 28.84 30.03 30.73 31.34 30.44 29.72 29.14 27.64 28.28 29.81 32.32 31.87 30.02 32.11 33.66 33.27 32.89 33.64 34.24 36.24
24.75 24.64 25.16 25.79 25.93 27.57 28.38 29.69 27.18 26.28 26.57 28.59 29.51 29.55 30.20 31.01 30.76 32.65 31.19 30.26 31.94 31.86 32.31 31.54 32.30 32.71 34.66
24.00 24.10 24.18 24.12 25.44 28.90 28.91 27.36 25.41 24.66 23.43 23.83 23.56 24.84 29.12 28.52 31.16 29.06 29.32 29.39 30.93 32.15 32.92 31.20 30.93 32.52 34.74
23.49 23.68 23.92 26.10 27.51 27.74 28.01 26.75 25.18 24.33 23.92 23.06 22.76 24.50 24.47 21.40 25.69 30.56 27.38 29.09 29.35 30.06 31.60 30.17 28.98 32.28 34.04

GFSFLT2_sfc_wetblb_027.txt.gz
Wetbulb
35.52 37.20 36.77 36.58 37.55 38.79 39.19 38.97 39.65 41.78 42.31 42.54 42.66 42.94 42.87 42.93 43.53 44.70 45.92 47.24 48.49 50.05 51.68 53.67 55.82 56.76 57.82
33.23 33.98 34.44 35.58 36.41 36.26 37.65 38.75 38.15 40.34 41.32 41.52 41.93 41.99 42.10 42.32 42.53 43.49 44.35 44.70 46.13 47.95 48.87 51.28 53.23 55.28 56.64
30.90 33.55 33.97 35.17 34.73 35.79 35.48 35.29 37.07 39.85 40.46 40.38 40.79 41.18 42.04 42.40 42.80 43.54 44.35 44.20 44.85 46.15 47.90 49.29 51.36 53.01 54.79
30.99 31.42 32.66 34.01 34.29 31.75 30.39 33.28 33.42 36.52 37.24 37.80 39.33 40.02 40.89 41.74 42.21 43.03 43.84 44.78 44.86 44.58 46.62 47.78 49.47 52.06 53.27
29.73 30.98 31.47 29.97 28.94 30.42 29.49 30.60 31.61 33.12 33.06 34.38 35.52 36.62 37.50 39.68 40.01 42.00 42.87 43.20 43.80 44.60 45.03 45.64 47.29 48.05 51.43
30.74 29.09 28.23 28.65 29.33 28.82 28.43 27.20 25.50 32.95 32.13 31.70 33.92 32.84 34.75 36.21 39.45 40.70 41.51 41.77 42.09 42.98 43.75 44.44 46.43 47.33 48.39
28.76 27.87 27.27 28.72 28.99 28.29 28.81 28.87 27.58 30.39 31.13 28.62 32.84 32.34 35.73 37.75 39.99 39.80 40.41 41.37 41.64 42.09 43.39 45.21 46.28 47.09 48.27
30.08 29.34 30.01 31.10 31.13 30.55 29.47 29.01 29.46 30.47 31.98 27.03 31.10 31.11 32.85 35.35 38.68 39.06 39.76 39.92 40.96 41.81 42.91 44.74 45.96 46.62 47.92
33.27 33.69 33.87 33.92 32.81 29.16 26.66 25.97 24.37 26.52 30.36 27.56 28.81 29.62 31.46 32.12 33.81 37.69 39.04 40.40 40.41 41.97 44.20 45.07 46.11 46.94 47.11
28.78 29.41 30.23 29.78 32.07 29.44 28.08 25.06 24.26 23.49 28.02 26.49 26.91 28.24 25.96 30.90 33.24 34.05 34.36 37.27 38.53 40.61 41.55 43.74 44.70 43.33 43.86
26.37 26.59 27.11 27.85 28.24 28.66 28.67 27.04 24.90 24.29 28.34 28.25 26.96 27.51 27.37 27.21 30.15 31.84 32.42 34.27 36.69 36.81 39.49 41.39 42.90 43.57 42.26
24.83 24.67 24.84 25.18 26.27 27.17 27.84 28.32 29.15 28.03 29.67 29.64 26.96 27.18 26.26 26.38 24.98 29.11 30.51 33.24 35.10 34.40 37.44 41.95 44.59 45.19 46.63
23.59 23.65 24.64 25.76 26.43 26.89 27.99 28.66 29.19 29.99 30.94 31.33 29.59 27.80 26.37 24.24 23.69 25.13 27.28 32.24 32.71 33.41 35.62 37.35 40.28 42.52 41.96
23.56 24.26 25.11 25.04 25.01 26.60 25.96 27.21 27.76 28.15 29.99 31.10 29.65 28.32 25.40 26.97 26.94 25.32 28.85 28.86 31.76 32.02 33.25 33.52 35.57 37.92 38.87
23.19 22.96 23.37 24.19 24.33 26.15 29.10 27.95 25.97 24.81 24.22 25.96 27.02 26.70 26.83 28.43 28.90 31.15 30.49 30.53 31.66 31.71 32.75 31.64 31.85 36.11 38.57
22.89 22.93 23.02 23.16 24.51 26.73 26.92 25.91 25.29 24.60 23.82 23.88 23.32 23.91 27.21 28.73 31.07 28.62 29.81 30.37 31.67 31.77 32.47 31.41 31.25 33.87 36.47
22.62 23.01 23.07 23.95 25.45 24.80 24.64 24.27 23.75 24.22 24.59 24.11 21.70 20.64 23.26 20.72 25.75 32.22 28.46 30.10 29.86 29.77 31.58 31.64 30.92 33.18 37.04

GFSFLT2_sfc_wetblb_030.txt.gz
Wetbulb
31.67 32.99 32.90 32.78 33.73 34.58 35.66 35.56 36.39 40.49 41.39 41.50 40.81 41.28 41.89 42.55 43.10 43.17 43.32 44.18 44.84 45.77 46.98 48.31 49.26 50.60 52.34
30.31 31.04 30.98 32.32 32.73 32.66 34.45 36.39 35.76 38.76 39.67 39.73 40.18 40.53 41.37 41.26 40.78 41.59 42.26 43.45 43.81 44.52 45.26 45.79 47.23 48.37 50.24
28.24 30.84 31.24 31.89 31.33 32.62 33.73 33.29 34.18 36.65 37.55 38.18 38.95 39.01 39.35 40.03 40.69 41.40 41.88 41.97 42.54 42.98 43.82 44.86 45.84 47.70 49.11
29.25 29.26 29.35 31.08 32.45 29.81 28.22 30.17 29.40 32.61 34.47 35.67 37.08 37.82 38.74 39.65 39.76 39.82 39.79 40.02 41.28 42.20 43.18 43.93 45.17 46.12 48.08
28.17 27.71 28.99 26.80 26.19 27.90 26.49 27.19 27.97 29.70 29.63 30.70 31.64 32.18 33.25 36.14 36.32 37.70 38.56 39.94 40.95 41.89 42.61 43.03 44.82 45.23 46.37
28.76 25.18 24.90 25.59 27.14 25.74 25.30 24.77 23.72 30.76 29.06 27.97 30.58 29.50 31.13 32.50 36.82 38.14 39.77 39.94 41.83 41.71 41.71 42.04 42.55 44.05 44.60
25.60 25.07 25.29 26.66 26.58 26.15 26.98 27.32 26.51 28.42 27.95 25.27 28.81 27.76 31.15 33.40 36.00 37.32 37.70 38.50 40.04 40.22 41.16 41.87 42.47 43.01 44.34
27.85 28.11 28.98 29.82 29.59 28.86 27.56 26.71 27.18 27.64 28.77 23.51 27.67 27.48 29.00 30.75 35.17 36.11 36.44 37.38 38.21 39.10 40.11 40.46 41.29 42.71 44.07
33.09 33.48 32.85 32.54 31.62 27.96 25.29 24.13 22.28 24.11 26.97 24.82 25.14 25.62 26.74 27.37 30.31 34.79 35.93 38.39 37.66 38.39 39.09 40.37 40.77 43.25 43.08
26.51 26.73 28.47 28.10 31.13 28.02 26.39 22.70 22.29 21.31 25.23 23.70 24.09 24.74 23.11 27.90 29.62 31.28 31.22 35.23 36.14 36.43 37.86 40.23 41.78 41.28 42.23
24.04 24.81 25.36 25.51 26.05 26.61 27.11 25.45 22.85 22.30 26.52 26.89 25.55 25.57 25.27 24.86 27.66 29.97 31.40 30.33 30.91 32.02 34.92 38.52 40.05 40.80 40.82
23.39 23.29 23.24 23.71 24.63 25.63 26.62 27.16 27.84 26.77 28.42 28.52 25.93 25.97 25.17 23.88 22.74 26.92 27.40 28.31 29.08 29.83 34.03 37.50 40.17 41.39 43.99
22.75 22.53 23.64 24.64 25.35 25.50 26.60 27.50 28.20 29.23 30.58 28.14 26.77 25.50 24.22 22.97 22.57 23.58 25.73 27.59 30.25 31.78 32.22 34.94 37.27 39.27 39.29
22.53 23.40 24.16 23.86 23.72 25.31 24.58 26.82 25.61 26.83 28.97 27.71 26.96 24.35 21.83 23.60 24.99 25.75 26.92 25.21 31.93 31.87 32.04 35.84 37.72 38.68 38.94
22.44 22.07 22.41 23.04 23.10 24.74 26.07 25.41 23.65 23.78 24.69 26.52 26.25 24.74 24.45 24.37 25.73 27.57 29.36 30.18 31.70 31.68 33.01 33.05 35.09 38.01 39.36
21.99 22.01 22.01 21.95 22.57 24.88 25.52 24.53 22.99 24.01 24.46 24.83 22.63 21.89 25.03 26.83 30.78 27.57 29.55 30.04 31.62 31.95 32.69 32.63 32.72 36.42 38.95
21.96 22.50 22.39 22.78 23.67 24.27 24.05 23.80 23.32 25.72 25.26 24.20 22.09 20.58 20.06 19.17 25.95 33.78 28.29 29.76 31.89 31.57 33.10 33.21 31.62 32.73 35.74

GFSFLT2_sfc_wetblb_033.txt.gz
Wetbulb
30.57 31.58 31.31 31.67 32.30 33.00 34.09 33.22 34.02 38.59 40.13 40.77 40.68 40.46 40.56 40.33 40.96 41.64 42.19 43.40 43.93 44.41 44.99 46.22 46.93 46.97 47.57
29.07 30.18 30.52 31.38 31.43 31.50 32.42 34.58 33.99 37.11 38.51 38.96 39.20 38.88 38.87 39.28 39.72 40.23 40.18 40.82 41.49 42.37 43.42 43.88 44.84 46.01 47.05
28.31 29.97 30.25 31.69 30.25 30.94 30.98 30.46 32.21 34.92 36.24 36.46 37.16 37.39 37.76 38.51 38.99 39.47 39.60 40.11 40.69 41.28 41.93 42.67 43.65 44.60 45.58
27.98 29.43 28.58 30.00 30.64 26.36 25.38 27.95 27.91 30.73 32.71 33.98 35.49 36.21 37.17 37.65 37.50 37.21 37.48 38.26 39.20 39.77 40.39 40.83 41.47 42.59 44.05
27.35 27.21 27.66 25.10 24.01 25.63 24.96 26.26 27.10 28.26 28.04 29.20 30.46 30.99 31.16 33.97 34.12 35.26 35.98 37.05 38.34 39.54 40.46 41.30 41.55 42.22 43.35
28.35 24.84 24.29 24.82 25.43 24.75 25.25 24.87 23.49 30.56 28.29 26.70 28.84 27.51 28.77 29.78 33.94 35.25 36.36 37.57 38.64 38.41 40.38 40.26 40.63 41.87 42.62
25.61 25.06 24.79 25.24 26.13 27.04 26.47 25.03 24.35 26.60 26.44 23.99 27.24 26.23 28.66 30.21 33.99 34.63 35.82 35.80 36.56 37.69 38.43 38.98 40.48 40.96 41.33
27.45 27.41 28.65 29.66 28.23 26.93 26.48 26.26 26.30 26.14 26.79 21.75 25.36 24.30 26.57 27.48 32.54 33.85 34.80 35.34 35.87 36.74 37.74 38.38 39.14 39.69 40.41
33.07 32.57 31.62 31.63 30.60 27.32 24.03 22.36 20.37 22.12 25.46 23.57 23.74 23.43 24.89 25.89 28.10 32.82 34.12 35.21 36.40 37.78 37.99 38.42 39.54 39.58 39.37
24.93 25.88 27.46 27.27 30.42 26.86 25.27 21.30 20.99 20.29 24.79 23.10 23.52 24.12 22.15 26.91 27.68 28.56 28.98 33.75 34.75 35.52 36.59 37.05 37.21 35.63 35.95
23.26 24.17 25.34 25.79 25.78 26.35 26.47 24.45 21.89 21.51 25.88 27.08 25.28 24.95 24.20 23.49 26.48 27.72 28.57 29.13 29.55 31.18 33.87 34.79 36.18 36.74 35.64
23.13 23.22 23.02 23.36 24.36 25.24 25.97 26.22 26.82 25.82 27.70 28.76 25.88 24.71 22.71 20.37 20.37 25.17 26.32 27.43 28.25 28.02 28.72 31.73 35.48 36.96 38.80
22.16 22.09 23.14 24.16 24.69 24.66 25.71 26.53 26.61 28.14 28.97 28.93 28.28 26.69 23.80 20.23 19.97 22.69 25.44 26.87 29.41 29.27 29.69 31.34 32.41 34.17 33.44
21.96 22.85 23.73 23.53 23.22 24.49 23.44 24.05 24.71 24.97 27.96 28.84 28.85 26.35 22.00 21.42 22.41 22.41 26.82 26.65 29.14 31.74 31.75 32.48 34.26 36.09 36.33
22.01 21.72 22.04 22.73 22.91 24.06 24.69 24.71 23.14 23.25 24.02 26.73 27.15 25.55 23.97 22.75 21.72 25.82 27.91 29.69 31.85 31.70 32.02 34.02 36.13 37.16 38.35
21.50 21.51 21.69 21.46 22.02 24.12 24.37 23.74 23.10 23.76 25.20 25.17 24.37 22.25 23.96 26.16 30.50 28.48 28.90 29.36 31.85 32.06 32.61 32.87 32.48 37.56 39.77
21.06 21.94 21.21 21.48 22.35 22.74 22.31 23.18 23.63 26.06 25.36 24.70 23.68 21.73 19.31 18.68 24.35 34.05 28.26 30.26 32.69 32.14 32.41 32.12 32.06 35.32 37.90

GFSFLT2_sfc_wetblb_036.txt.gz
Wetbulb
29.63 30.85 30.57 30.86 31.75 32.74 33.21 32.29 33.15 37.56 38.67 38.40 38.84 38.79 39.20 40.01 40.55 41.03 41.40 41.59 42.31 43.46 44.29 45.02 45.74 46.27 46.67
28.82 29.14 29.04 30.20 30.57 30.69 32.03 33.40 32.65 35.35 36.42 37.10 37.29 37.67 37.99 38.18 38.46 39.12 39.55 40.07 40.68 41.66 42.26 43.02 43.68 44.23 45.13
25.69 28.49 29.09 30.63 29.47 30.70 30.33 28.96 30.20 33.28 35.15 35.76 36.44 36.78 37.06 37.50 37.93 38.37 38.48 38.89 39.35 39.82 40.46 41.23 42.00 43.05 44.15
26.92 28.46 28.46 29.30 29.64 25.61 24.74 26.93 26.41 29.29 31.83 33.41 35.04 35.52 36.35 36.92 36.77 36.44 36.59 37.14 37.78 38.25 38.60 39.07 39.71 40.91 42.21
26.18 26.16 27.48 24.72 23.43 25.12 24.22 25.19 26.16 28.24 28.35 28.14 29.21 29.55 29.88 32.95 33.14 34.21 34.67 35.34 36.10 36.94 37.86 38.60 39.41 40.16 41.37
27.03 23.87 23.57 24.01 24.99 24.55 24.85 25.03 21.04 27.71 25.85 25.59 27.67 26.43 27.72 28.53 32.68 33.97 34.77 35.36 36.16 36.82 37.68 38.72 39.38 40.34 40.63
24.00 23.74 23.56 24.83 27.08 26.32 24.34 23.67 22.94 25.75 25.72 22.98 25.66 24.19 26.63 28.30 32.53 33.34 34.24 34.98 35.45 35.84 36.37 37.48 37.78 38.35 39.44
26.20 27.14 28.74 28.60 27.32 26.71 26.20 25.88 25.61 25.35 25.77 20.61 24.30 23.27 25.69 26.62 31.86 33.13 33.87 34.50 35.06 35.73 36.35 36.98 37.14 37.89 38.58
32.75 31.79 31.08 31.30 30.40 27.42 23.89 22.05 20.02 21.92 24.84 22.64 23.10 23.18 25.01 25.64 27.75 32.46 33.48 34.21 35.03 35.81 36.90 37.58 37.99 38.63 37.52
24.72 25.39 27.20 26.83 30.32 26.80 25.30 20.97 20.36 19.40 23.99 22.37 22.79 24.17 22.49 27.16 27.77 28.22 28.20 32.39 33.65 34.47 35.43 35.99 36.43 34.90 35.36
22.96 23.70 24.84 25.14 25.43 25.83 26.20 24.12 21.31 20.65 24.89 25.59 23.98 23.57 24.05 23.77 25.73 26.24 26.00 26.19 27.89 29.81 33.34 34.71 35.72 35.63 32.60
22.53 22.55 22.54 22.92 24.01 24.92 25.61 25.75 26.16 24.82 26.48 26.52 24.28 24.69 23.39 22.28 21.27 23.41 24.34 25.84 27.62 27.93 28.86 31.87 34.43 35.38 36.46
21.54 21.44 22.50 23.55 24.24 24.33 25.34 26.05 26.13 26.85 28.17 28.39 26.95 26.32 24.96 21.44 20.94 21.19 22.95 25.38 27.79 28.46 28.66 28.66 28.74 30.66 30.57
21.24 22.04 22.80 22.41 22.11 23.57 22.65 23.82 24.04 24.51 28.11 28.63 29.09 27.12 22.86 20.99 21.67 21.63 24.52 23.40 29.43 31.09 31.36 30.92 30.72 31.58 32.04
20.94 20.43 20.55 21.23 21.49 22.27 23.27 23.05 22.10 22.69 24.62 27.46 27.71 26.89 25.37 23.14 21.73 25.95 28.87 29.23 32.31 31.76 31.34 33.34 31.96 32.81 33.12
19.93 19.68 19.83 20.44 20.15 22.32 21.73 22.57 21.58 23.15 25.65 26.00 25.01 23.70 24.31 25.69 30.52 28.14 30.07 29.69 32.13 32.01 33.35 33.85 33.89 36.21 37.11
19.02 20.09 20.85 19.66 21.04 20.39 21.45 22.31 21.73 25.28 25.33 25.65 24.63 23.23 20.27 20.25 25.40 32.94 30.06 31.71 32.21 32.09 32.31 32.71 31.99 34.75 38.13

GFSFLT2_sfc_wetblb_039.txt.gz
Wetbulb
28.52 29.94 29.72 29.19 30.20 31.09 32.18 31.79 32.28 37.16 38.31 38.53 38.12 37.81 38.28 38.78 39.29 39.91 40.48 41.09 41.89 42.91 43.76 44.42 44.86 45.10 45.57
27.64 27.61 27.64 29.10 29.63 29.76 31.98 33.25 32.72 35.00 36.58 36.48 36.99 37.39 37.67 37.99 38.14 38.52 38.97 39.52 40.02 40.68 41.41 42.38 43.07 43.83 44.72
25.06 27.93 28.49 29.68 29.68 30.28 29.37 28.25 29.57 32.99 34.88 35.35 35.96 36.26 36.73 37.19 37.52 37.72 37.88 38.36 38.76 39.18 39.74 40.40 41.24 42.15 43.23
26.63 27.37 27.84 29.23 28.05 24.82 24.00 26.28 26.10 29.05 31.52 33.08 34.53 35.12 35.61 35.76 35.62 35.55 35.77 36.18 37.00 37.69 38.16 38.39 38.91 39.91 41.16
26.65 25.96 23.84 23.43 22.28 24.28 23.66 25.05 26.72 28.12 26.97 27.03 27.22 27.47 28.34 31.85 32.19 33.47 34.01 34.75 35.63 36.36 36.90 37.39 37.88 38.62 39.57
24.54 22.52 22.23 22.60 24.00 24.03 25.57 23.33 21.20 27.87 25.87 25.53 27.56 25.98 26.75 27.24 31.84 33.33 34.31 35.15 35.72 36.09 36.96 37.41 37.86 38.34 38.81
23.20 22.25 22.40 24.42 27.29 24.94 24.31 24.17 23.28 26.06 26.04 23.18 25.67 23.80 26.48 27.67 31.96 32.91 33.99 34.69 35.26 35.72 35.94 36.59 37.24 37.70 38.46
25.71 26.69 28.81 28.03 26.96 26.75 26.33 26.02 25.81 25.44 25.86 20.48 24.15 22.75 25.31 26.49 31.48 32.79 33.63 34.41 34.82 35.43 36.08 36.23 36.51 37.23 37.52
32.72 31.55 30.99 31.26 30.41 27.49 23.65 21.83 19.86 21.51 24.60 22.25 22.51 22.77 24.29 24.95 27.16 32.16 33.35 34.20 34.67 35.37 35.26 35.88 36.32 37.20 36.62
24.41 25.18 26.95 26.54 30.05 26.52 24.84 20.57 20.00 19.02 23.63 21.98 22.13 23.18 21.23 25.77 26.23 27.84 27.99 32.18 33.28 33.98 34.54 35.14 35.72 33.35 33.55
22.91 23.42 24.42 24.66 24.91 25.14 25.26 23.63 21.06 20.38 24.61 25.46 23.35 22.64 22.29 22.34 25.41 26.53 27.12 27.40 27.96 28.50 31.87 33.52 35.00 35.32 32.07
21.94 22.02 21.62 21.86 22.83 23.64 24.38 24.66 25.60 24.58 26.27 26.34 23.89 23.63 23.02 22.24 21.62 24.41 26.07 27.52 27.58 26.57 27.03 30.41 33.88 35.20 36.34
20.74 20.40 21.08 22.03 22.57 22.60 23.47 23.86 24.29 26.15 27.53 27.22 26.58 26.34 25.83 23.54 21.92 22.67 24.82 26.22 27.79 27.33 27.70 28.26 28.35 29.33 30.00
20.22 20.74 21.44 20.78 20.24 21.70 21.15 21.90 22.27 23.15 27.02 28.42 29.69 27.62 24.62 24.58 24.10 22.68 25.30 24.92 30.13 31.42 31.64 31.06 29.64 29.52 29.63
19.73 19.31 19.41 19.27 19.66 21.03 21.07 21.67 20.21 21.60 22.96 27.21 28.52 27.98 27.43 26.38 23.39 25.45 28.74 31.22 32.15 31.83 31.81 30.90 29.27 29.59 30.63
19.07 18.83 17.91 18.75 18.99 20.62 20.11 20.65 21.07 21.94 23.76 26.03 25.60 24.72 26.42 25.68 30.78 28.56 30.23 31.49 32.21 32.37 32.51 32.70 30.98 31.51 32.22
17.96 18.20 19.89 18.39 19.28 18.55 19.06 21.01 21.19 23.28 25.24 26.17 24.66 23.89 22.67 21.31 26.83 32.91 28.61 31.18 32.13 32.46 32.23 31.71 31.94 34.34 33.44

GFSFLT2_sfc_wetblb_042.txt.gz
Wetbulb
28.00 29.00 28.81 28.49 29.35 30.23 31.36 30.72 31.59 36.69 37.71 38.01 37.97 38.01 38.27 38.64 39.21 39.73 40.13 40.72 41.30 42.29 43.04 43.68 44.38 44.90 45.74
26.81 27.03 27.09 28.61 29.09 29.66 31.42 32.54 31.01 34.31 35.90 36.31 36.88 37.40 37.63 37.75 38.00 38.49 39.12 39.51 39.60 40.18 40.93 41.72 42.55 43.45 44.23
24.51 27.61 28.13 29.59 29.09 28.20 27.25 27.27 28.84 32.54 34.60 35.06 35.70 36.33 36.72 37.26 37.53 37.71 37.73 38.01 38.18 38.66 39.11 39.80 40.81 41.77 42.75
26.54 27.22 28.06 26.67 25.81 23.52 23.30 25.92 25.75 28.72 31.53 33.01 34.55 34.85 35.43 35.72 35.46 35.20 35.39 35.76 36.55 37.14 37.56 37.85 38.33 39.44 40.83
26.33 24.34 23.12 22.86 21.99 23.84 23.49 24.85 26.86 27.62 26.67 27.57 27.89 27.79 28.47 31.98 32.30 33.41 33.65 34.37 35.33 36.14 36.94 37.34 37.47 38.26 39.19
23.73 22.18 21.96 22.32 23.95 24.28 25.37 22.91 21.35 27.76 25.55 25.78 27.50 26.15 27.09 27.50 31.75 33.14 34.10 34.96 35.62 36.21 36.69 37.27 37.74 38.05 38.52
22.82 22.12 22.26 24.36 27.02 24.63 24.22 24.14 23.36 25.94 25.65 22.62 25.48 23.83 26.37 27.55 31.83 32.75 33.80 34.51 35.10 35.66 36.24 36.71 37.15 37.77 37.79
25.73 26.76 28.89 27.88 26.90 26.51 26.12 25.98 25.55 25.19 25.62 19.95 23.82 22.54 25.23 26.56 31.43 32.74 33.57 34.19 34.66 35.21 35.86 36.36 36.66 37.04 37.59
32.58 31.73 31.08 31.24 30.19 27.10 22.96 21.35 19.56 21.00 23.83 21.90 22.11 22.50 23.92 24.94 26.96 31.85 33.06 33.97 34.57 35.23 35.95 36.26 36.46 37.05 36.68
23.86 24.54 26.22 25.72 29.50 25.15 23.62 19.70 19.26 18.37 23.09 21.88 21.92 23.35 20.81 25.07 26.38 27.69 27.14 31.74 33.37 34.38 35.28 36.08 36.32 33.11 32.33
21.78 22.40 23.40 23.56 23.61 23.61 24.12 22.42 19.71 19.28 23.54 24.69 22.59 22.12 22.38 21.99 25.44 27.65 28.44 28.53 28.83 29.56 32.83 34.35 35.53 35.45 32.17
20.99 21.30 21.10 20.95 21.69 22.34 22.89 23.05 23.59 22.79 24.21 24.09 22.54 23.22 22.43 21.74 22.09 26.06 27.75 29.04 29.09 28.26 28.86 31.58 34.22 34.90 35.74
20.49 19.89 20.25 20.88 21.08 20.86 21.57 22.23 22.41 23.08 25.59 25.45 25.80 25.48 25.55 24.50 23.45 24.51 26.48 27.57 28.95 28.53 29.19 28.97 28.07 28.19 28.49
19.67 20.09 20.49 19.65 19.25 19.82 19.47 20.29 21.04 20.76 25.86 27.94 28.52 28.58 25.66 25.54 25.67 24.93 26.97 25.97 31.45 33.03 32.44 32.77 29.77 29.69 29.02
19.48 19.01 19.01 18.90 18.36 19.84 19.78 20.28 18.84 20.44 21.93 26.06 29.30 28.91 28.34 26.95 25.63 26.46 28.79 30.07 31.96 32.19 32.24 31.17 29.08 29.15 29.33
18.77 18.43 17.59 17.49 18.60 19.65 19.23 18.68 18.91 20.70 21.15 25.91 25.80 25.79 26.29 27.52 31.27 29.03 30.42 30.44 31.80 32.49 32.59 31.21 31.16 29.74 30.72
17.68 17.51 19.14 18.61 18.57 17.81 18.22 18.88 19.03 20.73 24.19 25.04 25.01 24.55 21.89 21.55 27.46 33.66 29.70 30.99 31.86 32.08 32.29 31.87 31.67 32.29 31.38

GFSFLT2_sfc_wetblb_045.txt.gz
Wetbulb
31.86 32.94 32.26 32.33 32.89 34.02 34.47 33.96 35.01 36.30 37.12 37.35 37.60 38.08 38.55 39.00 39.31 39.85 40.28 40.79 41.28 42.11 42.85 43.40 43.93 44.51 44.96
29.32 30.92 30.82 32.24 32.57 32.16 32.50 32.49 32.55 33.92 35.49 36.15 37.06 37.34 37.59 37.95 38.25 38.81 39.02 39.46 39.93 40.48 41.08 41.73 42.56 43.07 43.91
28.16 31.07 31.53 32.58 31.03 31.11 30.30 30.84 31.69 33.33 34.62 35.13 35.95 36.47 36.96 37.41 37.74 37.98 37.87 38.07 38.31 38.62 39.06 39.56 40.38 41.32 42.45
29.04 29.71 30.09 30.72 30.02 28.36 27.91 29.93 30.15 31.54 32.93 33.63 34.87 35.14 35.76 36.24 36.09 35.76 35.75 36.07 36.88 37.41 37.81 37.89 38.29 39.29 40.33
28.32 27.85 27.27 27.41 26.23 28.13 27.06 28.56 29.65 30.54 30.41 30.94 32.04 32.04 32.63 33.86 33.53 33.86 34.04 34.80 35.63 36.40 37.05 37.57 37.63 38.23 39.07
27.45 25.91 26.05 26.65 27.73 27.24 27.72 25.21 23.98 30.97 29.01 28.07 31.50 30.16 31.22 31.75 32.86 33.74 34.63 35.27 35.70 36.19 36.68 37.40 38.38 38.45 39.01
26.49 25.96 25.96 27.63 28.93 27.40 27.06 26.55 25.75 28.99 28.26 24.73 29.36 28.23 30.61 30.67 32.64 33.48 34.35 34.97 35.56 36.01 36.50 36.91 37.40 37.62 38.07
29.08 29.38 30.53 30.80 29.25 28.54 27.98 27.43 27.67 28.18 28.51 22.84 27.70 26.71 29.44 30.58 32.68 33.51 34.14 34.66 35.24 35.84 36.39 36.76 36.86 37.11 37.34
32.55 32.30 31.33 31.29 30.39 28.34 25.75 23.12 21.77 23.67 27.13 24.94 26.15 26.39 27.67 28.49 30.99 32.79 33.56 34.48 34.89 35.64 36.49 36.87 37.09 37.45 37.13
26.98 27.03 27.73 27.52 29.49 27.17 26.07 21.85 21.65 20.56 26.78 23.93 24.78 25.58 22.90 28.74 30.71 31.23 32.12 33.41 34.54 35.42 36.42 37.12 37.41 35.47 35.22
24.55 25.15 25.84 26.44 26.36 26.38 26.01 24.08 21.62 21.37 25.83 25.69 24.50 24.38 23.80 24.41 28.35 30.83 30.83 31.77 32.62 33.02 34.45 35.25 36.33 36.21 32.93
23.26 23.92 24.30 24.18 24.99 25.33 25.25 25.20 25.42 23.62 25.26 25.06 23.14 23.60 23.51 23.57 24.49 30.20 31.38 32.60 33.77 33.33 33.66 34.70 35.84 37.29 37.64
22.91 23.06 23.80 24.34 24.23 24.24 24.97 24.97 24.73 25.66 26.54 26.36 25.52 26.16 26.60 25.67 26.20 27.93 29.22 31.69 33.64 32.29 33.67 33.28 32.72 32.34 30.64
22.47 23.11 24.04 23.45 22.89 24.02 22.22 23.07 22.81 23.77 27.34 28.49 29.13 28.93 28.67 28.58 28.40 27.98 30.60 29.40 32.70 33.55 33.12 33.35 33.75 32.30 31.05
22.08 21.63 21.66 21.92 21.66 23.25 22.93 23.03 21.06 21.73 23.26 27.23 29.46 30.98 30.45 29.71 28.26 30.55 31.38 31.84 32.73 32.54 32.42 32.12 32.75 31.92 30.82
21.18 21.06 20.33 20.22 20.96 22.85 22.78 21.84 21.14 22.30 23.53 26.51 28.11 27.58 29.06 31.72 33.48 31.47 32.06 30.84 32.21 33.10 33.18 31.48 32.34 30.44 31.48
20.51 20.32 21.19 21.57 20.65 20.72 21.18 21.90 22.14 23.56 26.03 28.17 26.65 27.08 24.30 24.44 31.20 33.31 30.12 31.40 31.57 32.23 32.82 32.37 31.57 32.18 31.69

GFSFLT2_sfc_wetblb_048.txt.gz
Wetbulb
34.12 34.80 34.26 34.69 35.68 36.47 36.22 35.52 36.69 37.05 37.60 37.74 37.88 38.22 38.81 39.33 39.73 40.25 40.77 41.39 41.95 42.82 43.51 43.95 44.32 44.52 44.79
31.66 33.38 33.39 35.08 34.60 34.02 35.13 34.59 34.90 35.92 37.07 37.46 37.86 37.99 38.25 38.62 38.85 39.33 39.62 39.94 40.58 40.97 41.93 42.56 43.04 43.44 44.03
31.05 34.00 34.89 34.38 34.25 33.64 33.15 33.79 34.56 35.51 36.58 36.77 37.26 37.52 37.69 37.97 38.27 38.50 38.48 38.73 38.98 39.15 39.52 40.01 40.79 41.79 42.69
31.52 32.04 33.25 33.79 33.10 31.42 30.44 32.55 32.49 33.69 35.33 35.50 36.49 36.60 37.06 37.45 37.24 36.89 36.87 37.19 37.75 38.20 38.32 38.37 38.76 39.70 40.88
30.89 31.12 30.15 30.47 29.27 30.84 29.71 31.26 32.01 32.71 33.26 33.81 34.31 34.49 35.05 36.01 35.48 35.59 35.79 36.25 36.74 37.27 37.79 38.25 38.41 38.79 39.47
29.74 28.38 28.46 29.11 30.42 29.45 28.93 28.09 25.97 32.68 31.11 30.42 33.23 32.34 33.83 34.82 35.34 35.77 35.98 36.24 36.59 37.08 37.50 38.14 38.26 38.41 38.91
28.37 27.83 28.00 29.59 29.99 29.94 28.73 27.91 27.07 30.23 30.06 27.59 31.98 31.17 33.80 34.06 34.81 35.33 35.97 36.38 36.73 37.07 37.23 37.66 38.12 38.45 38.69
30.39 30.42 31.22 31.91 31.41 30.01 29.42 28.75 29.93 30.44 30.76 25.45 30.47 29.60 32.87 33.81 34.51 34.97 35.48 35.90 36.23 36.65 37.25 37.76 38.23 38.53 38.93
33.16 33.94 33.64 32.79 31.74 29.69 27.80 25.86 23.74 26.22 29.67 27.56 28.73 28.74 29.33 30.31 33.34 34.81 35.62 35.89 35.97 36.72 37.19 37.34 37.88 38.49 37.82
30.65 30.47 30.81 30.60 31.58 29.82 28.68 25.06 24.50 23.03 28.73 26.15 26.55 26.29 24.24 30.04 32.73 32.70 34.14 35.23 35.99 36.73 37.20 37.28 37.58 35.95 35.32
27.89 28.40 29.04 29.46 29.55 29.52 28.85 26.93 24.35 24.04 28.07 27.00 25.36 24.87 24.47 25.48 29.17 31.88 32.79 35.01 35.40 35.26 36.71 37.25 37.54 37.24 34.65
25.73 25.92 27.07 27.47 28.32 28.20 27.89 27.60 27.73 25.77 27.58 26.62 23.54 24.52 24.24 24.30 24.43 30.93 32.68 34.79 35.61 34.82 35.36 36.58 38.24 38.53 38.77
24.53 25.59 27.09 27.55 27.55 27.30 28.22 28.28 27.59 28.15 28.80 28.51 27.56 27.26 26.88 25.06 25.86 28.84 30.49 33.06 35.21 34.84 34.35 34.42 34.28 34.51 32.82
24.82 25.95 27.09 26.73 26.09 26.98 25.28 25.73 25.41 26.64 29.70 30.42 30.37 29.72 28.11 29.00 29.32 28.42 31.14 29.95 33.74 34.38 33.36 33.79 34.85 34.97 34.56
24.66 24.35 24.68 25.22 24.92 26.36 25.70 25.90 23.44 23.56 25.30 29.76 31.46 31.88 31.81 30.25 28.45 31.02 31.71 32.33 33.75 33.03 32.33 32.52 34.13 34.33 33.62
23.76 23.85 23.33 23.06 24.27 25.79 26.01 24.93 23.59 24.14 25.34 27.81 30.23 29.60 30.48 32.37 34.97 32.31 32.64 31.92 32.36 33.01 32.95 31.81 32.07 32.84 32.51
23.65 23.59 24.36 24.53 23.27 24.03 24.85 24.86 24.20 26.22 26.70 28.75 29.49 28.82 26.37 25.27 31.86 35.83 31.66 31.70 31.91 32.45 32.51 32.21 31.46 33.55 33.55

GFSFLT2_sfc_wetblb_051.txt.gz
Wetbulb
33.73 34.76 33.40 33.83 35.05 35.66 36.47 35.40 35.82 38.15 38.79 39.16 39.33 39.59 40.03 40.21 40.51 40.74 41.25 41.88 42.51 43.21 44.03 44.56 44.98 45.18 45.39
31.35 31.99 32.69 33.85 34.44 34.33 35.22 35.23 34.04 36.82 38.42 38.77 39.12 39.24 39.44 39.61 39.72 39.85 40.10 40.34 40.89 41.38 42.06 42.97 43.57 43.94 44.62
29.26 32.13 32.50 33.65 33.88 33.24 32.54 33.19 34.50 36.17 37.29 37.79 38.38 38.56 38.89 39.26 39.33 39.44 39.33 39.50 39.65 39.76 40.26 40.66 41.27 42.18 42.96
29.10 29.58 31.43 32.88 31.39 30.00 29.20 31.13 30.72 33.50 35.19 35.78 37.08 37.40 38.23 38.24 38.05 37.87 37.77 38.06 38.70 39.06 39.07 39.12 39.42 40.17 41.01
28.84 30.30 28.57 28.42 27.65 28.94 27.90 28.92 29.60 31.82 30.30 31.00 31.95 31.51 32.59 35.51 35.47 36.33 37.00 37.88 38.39 38.71 39.19 39.51 39.50 39.85 40.56
29.59 27.36 27.65 28.01 28.52 27.89 27.09 26.90 24.73 30.80 29.23 27.92 30.60 29.83 31.19 32.07 35.95 36.86 37.09 37.53 37.97 38.41 38.83 39.06 39.24 39.62 40.06
28.27 27.65 27.04 28.04 28.28 27.24 28.25 26.93 25.80 28.25 28.26 26.16 29.70 28.18 30.63 32.10 35.39 36.62 36.89 37.22 37.69 37.80 37.97 38.51 38.77 39.16 39.67
30.36 29.63 29.91 30.95 31.35 30.56 28.17 27.44 27.95 28.63 29.31 24.10 27.73 26.24 29.51 30.88 34.33 35.15 36.00 36.90 37.43 37.94 38.19 38.25 38.29 38.76 39.43
33.32 33.98 34.73 34.55 33.01 29.66 26.40 25.40 23.49 24.82 27.61 25.03 26.14 26.15 26.77 26.84 29.94 34.48 35.58 36.10 36.30 37.37 38.07 38.29 38.58 39.15 38.32
29.81 30.16 31.06 30.34 32.78 30.06 28.56 25.18 23.59 22.25 26.12 24.77 24.70 24.93 21.40 26.27 28.45 28.74 29.94 33.66 35.74 36.50 38.12 38.39 38.46 35.86 35.06
27.22 27.32 27.52 27.57 28.55 29.21 28.74 26.66 23.70 22.60 26.26 25.90 24.16 23.29 22.81 22.10 25.21 27.34 28.30 29.67 31.44 32.49 36.87 37.89 38.35 37.98 35.11
25.14 24.78 25.32 26.09 27.31 27.37 27.50 27.46 27.54 25.89 27.22 26.96 23.72 23.39 22.49 21.51 21.39 26.41 28.31 29.92 31.87 31.98 33.64 37.18 38.53 38.32 38.72
24.48 25.04 25.93 26.75 26.94 26.92 27.37 27.49 27.51 27.00 27.18 26.90 26.79 26.55 25.95 23.96 23.47 25.28 27.54 29.84 31.67 32.17 33.65 33.95 33.53 34.23 32.94
24.22 24.95 25.99 25.36 24.58 25.83 24.80 25.13 24.47 24.35 26.95 27.08 28.89 28.75 27.06 27.17 27.45 27.17 29.16 27.56 31.81 33.06 33.33 33.09 34.08 35.36 34.96
24.49 23.79 23.06 23.63 23.85 24.63 24.70 24.84 23.48 23.20 24.19 26.73 29.46 30.04 30.06 29.93 27.84 28.58 29.31 30.76 32.62 32.44 31.94 31.66 33.07 34.35 34.50
23.23 22.80 22.59 22.53 22.73 24.16 24.34 23.66 23.08 23.78 24.59 26.28 27.47 27.39 27.61 30.33 33.84 30.12 30.29 30.94 31.93 32.35 32.20 30.84 30.90 33.61 35.25
23.34 22.49 22.52 22.80 22.68 21.76 22.80 23.20 23.60 24.12 25.09 27.18 26.92 25.94 23.94 22.56 28.76 34.64 29.70 29.48 31.11 31.45 31.40 31.37 30.79 32.52 34.57

GFSFLT2_sfc_wetblb_054.txt.gz
Wetbulb
30.04 30.74 29.29 30.68 32.27 32.31 33.92 33.17 34.62 38.58 39.12 39.51 39.90 40.07 40.60 40.79 41.14 41.48 41.71 42.18 42.66 43.43 43.89 44.64 44.98 45.26 45.57
28.24 28.94 29.02 30.38 30.95 31.07 33.64 34.97 32.59 36.17 38.37 38.81 39.04 39.37 39.68 39.96 40.11 40.51 40.65 41.03 41.28 41.85 42.25 42.84 43.37 43.80 44.62
26.59 28.95 29.00 30.12 30.38 31.47 30.60 30.66 32.44 35.44 36.64 37.32 37.83 38.64 38.72 39.03 39.40 39.50 39.18 39.44 39.94 40.12 40.44 40.92 41.67 42.34 43.19
26.73 27.38 29.10 31.04 29.31 27.24 26.87 28.62 28.41 31.54 33.38 35.17 36.55 36.58 37.26 37.49 37.27 37.11 37.28 37.80 38.75 39.27 39.62 39.94 40.29 41.06 41.94
28.12 27.67 27.92 27.14 26.36 26.80 25.60 26.59 27.48 29.17 29.60 29.20 29.64 29.77 30.25 33.76 34.29 35.41 36.25 37.88 38.68 39.15 39.65 40.04 40.10 40.56 41.12
27.34 27.13 26.69 25.59 26.41 25.19 25.12 25.08 24.48 29.67 26.94 26.80 28.63 27.67 29.20 29.94 34.44 36.02 36.55 37.45 38.25 38.45 39.05 39.55 39.90 40.19 40.44
27.34 25.80 25.61 26.07 25.38 25.82 27.00 27.62 25.63 27.19 26.96 25.08 27.77 26.19 28.49 30.02 33.61 35.17 36.05 36.45 37.29 37.86 38.46 38.97 39.52 40.04 40.48
28.69 28.20 27.57 29.57 30.59 30.46 28.15 26.50 27.22 27.62 27.61 23.16 26.31 24.88 26.96 28.30 33.11 34.02 34.87 36.00 36.92 37.27 37.62 38.07 38.70 39.34 39.83
33.23 33.81 34.22 34.17 32.92 28.78 25.46 24.53 22.95 24.40 26.33 23.85 23.90 24.12 24.96 25.45 27.35 32.53 33.99 34.49 34.87 35.81 36.92 37.48 38.36 39.19 38.16
27.80 28.10 28.89 26.81 31.40 26.98 26.15 23.97 23.00 21.28 24.43 23.01 22.82 23.40 20.74 23.90 23.31 26.02 26.61 31.12 33.55 34.66 36.10 36.75 37.58 36.07 36.11
24.56 24.66 25.23 25.41 26.05 27.36 27.96 26.10 23.26 22.01 25.60 25.92 23.76 22.86 22.23 20.75 23.40 25.33 26.20 27.11 28.67 30.13 33.91 36.04 37.21 37.18 35.12
23.36 23.29 23.80 24.32 25.08 25.94 26.32 26.87 27.26 26.00 27.32 26.99 24.01 23.21 22.09 20.97 20.62 24.98 26.70 28.18 29.09 29.51 30.96 34.26 36.66 38.02 38.39
22.76 23.23 23.49 24.10 24.60 24.80 25.16 25.26 26.28 26.31 26.90 26.15 25.24 24.85 24.58 22.86 22.55 24.19 26.12 28.31 30.47 30.44 31.75 32.44 33.39 33.79 32.44
22.20 23.36 24.15 23.48 22.26 23.19 23.52 23.67 23.12 22.94 26.03 25.09 26.00 26.81 25.28 26.03 26.26 25.60 27.37 26.70 30.06 31.19 32.53 33.35 33.64 33.81 33.56
22.29 22.57 22.36 22.00 21.85 23.05 22.57 23.26 22.17 21.58 22.65 25.24 26.98 28.43 28.49 27.81 25.74 26.46 27.52 28.76 30.96 31.41 31.68 30.75 32.26 32.95 33.01
22.22 21.76 21.34 21.02 20.95 22.07 22.96 21.66 20.99 21.42 23.09 24.77 25.62 26.14 25.95 26.82 31.39 28.01 28.58 27.78 29.86 30.59 31.02 30.20 30.23 32.11 33.43
21.43 20.92 20.93 21.16 21.71 19.89 20.68 21.27 20.54 21.40 22.54 24.87 26.18 25.25 22.65 21.32 27.39 33.46 28.59 28.96 29.47 29.69 31.21 30.91 29.62 31.20 32.84

GFSFLT2_sfc_wetblb_057.txt.gz
Wetbulb
27.35 27.99 26.66 27.78 30.16 30.96 32.14 31.74 33.01 38.03 38.54 39.07 39.41 39.77 40.23 40.60 40.90 41.39 41.63 42.15 42.89 43.67 44.46 44.95 45.25 45.32 45.56
27.02 27.61 27.61 28.44 29.14 29.09 31.33 33.79 32.28 35.31 37.49 38.11 38.45 38.70 39.01 39.61 39.97 40.16 40.32 40.71 40.93 41.32 41.99 42.79 43.25 43.88 44.66
25.82 28.15 27.96 29.26 28.99 30.01 30.75 30.10 31.46 34.56 35.81 36.53 37.11 37.76 38.53 38.48 38.68 38.79 38.62 38.82 39.10 39.47 39.94 40.65 41.40 42.22 43.03
25.83 25.95 28.34 29.99 29.14 27.32 26.53 28.21 27.67 30.36 32.33 34.32 36.03 36.35 36.47 36.79 36.79 36.43 36.37 37.11 37.95 38.75 39.53 39.94 40.49 41.44 42.39
25.32 26.39 27.50 27.32 25.34 26.25 25.10 26.01 27.04 28.37 28.91 29.28 28.74 29.08 29.49 32.87 33.29 34.46 35.32 37.04 37.78 38.37 39.15 40.03 40.24 40.69 41.60
26.40 26.19 25.66 25.00 25.94 25.78 24.64 23.90 23.63 29.69 25.23 26.72 28.52 27.35 28.21 28.79 33.26 35.07 35.76 36.18 37.24 37.53 38.16 38.98 39.51 39.99 40.57
26.36 25.51 24.73 26.00 25.57 24.82 26.34 27.06 25.93 27.38 27.10 25.10 27.39 25.81 27.90 29.19 32.97 34.03 35.11 35.78 36.33 36.79 37.74 38.38 38.79 39.34 39.73
28.07 27.51 27.55 29.26 30.36 29.63 27.54 26.02 26.23 26.66 26.68 22.59 25.75 24.18 26.32 26.91 32.02 33.26 34.20 34.92 35.53 36.15 36.34 36.83 37.41 38.17 39.20
33.38 33.83 34.02 33.59 32.01 28.28 23.78 22.63 20.91 23.29 26.11 23.68 22.99 23.01 24.26 24.75 26.53 31.70 32.88 33.58 33.85 34.51 35.37 36.29 36.72 37.85 37.23
26.66 26.69 27.89 26.24 30.67 26.36 23.67 22.25 21.96 21.28 23.35 22.61 22.58 23.37 20.71 21.96 21.97 25.63 25.08 30.14 32.37 33.70 34.62 35.48 36.27 34.12 34.43
23.56 23.85 24.56 24.86 25.66 25.87 25.46 24.86 22.52 21.74 25.36 25.73 23.67 22.99 22.70 21.11 23.55 25.00 25.54 25.98 26.71 28.44 32.44 34.21 35.46 35.92 33.97
22.42 22.32 23.03 23.49 24.06 24.55 25.20 24.96 24.98 24.21 25.34 25.22 23.12 23.02 22.00 20.50 19.70 23.82 25.39 26.53 27.08 27.34 28.89 32.44 35.05 36.33 37.31
21.24 21.95 22.45 23.29 23.87 24.18 23.92 23.64 22.85 24.26 25.57 24.44 23.72 23.56 23.32 21.61 21.19 22.56 24.50 26.32 28.20 27.92 27.77 30.51 30.95 32.38 32.37
21.67 22.47 23.10 22.77 22.19 22.79 21.55 21.51 20.78 20.91 25.23 24.20 22.41 23.21 22.90 23.70 24.23 24.08 26.01 24.32 27.63 28.09 30.18 31.31 32.18 33.07 32.98
21.03 20.99 21.39 21.42 21.39 22.06 20.97 20.68 20.20 19.74 20.07 23.10 24.19 24.45 24.86 24.60 23.49 24.72 25.08 25.56 27.75 28.97 28.87 28.92 30.24 30.59 31.70
20.65 20.47 20.06 19.99 19.89 21.08 22.31 20.41 18.66 19.51 20.10 21.19 21.76 22.21 23.63 25.56 29.49 24.89 26.06 26.70 27.90 28.89 29.75 28.15 28.30 31.11 32.84
19.97 20.11 20.56 20.87 21.81 20.14 19.98 20.03 19.70 19.87 20.21 21.46 23.16 23.03 19.91 18.86 25.26 32.41 27.54 27.46 27.60 27.99 29.33 29.40 29.02 30.48 32.26

GFSFLT2_sfc_wetblb_060.txt.gz
Wetbulb
25.50 26.98 26.07 27.01 29.09 29.69 30.77 30.33 31.34 36.98 38.52 38.71 38.99 39.47 39.81 40.27 40.53 41.03 41.60 42.28 42.78 43.43 44.29 44.95 45.30 45.64 45.78
25.22 25.67 25.70 27.58 27.56 27.42 30.21 32.21 31.50 35.46 37.20 37.81 38.28 38.41 38.85 39.19 39.52 40.01 39.75 40.46 40.63 41.16 41.60 42.46 43.16 43.89 44.66
25.29 26.12 26.37 27.01 27.95 28.23 28.63 29.65 31.30 34.24 35.56 36.04 36.90 37.30 38.09 38.73 38.73 38.61 38.55 38.72 38.96 39.11 39.66 40.18 41.01 42.03 43.03
25.29 24.65 24.95 27.63 27.55 26.14 25.63 27.51 27.10 29.90 32.15 33.85 35.76 36.46 37.00 36.92 36.78 36.38 36.24 36.72 37.60 38.31 38.91 39.15 40.02 40.91 42.07
25.33 24.08 25.47 25.85 24.90 25.77 24.66 25.83 26.61 27.88 27.54 27.53 27.08 28.69 29.51 32.86 33.15 34.18 34.70 36.21 37.09 37.99 38.45 38.82 39.39 40.02 40.95
27.54 25.79 25.30 25.15 25.93 24.83 24.54 23.50 23.09 28.63 25.45 26.42 28.23 27.05 28.01 28.48 32.86 34.75 35.64 36.00 36.45 37.11 37.80 38.34 38.66 39.35 40.20
26.55 25.56 24.84 25.78 25.74 24.23 25.16 25.83 25.47 26.84 25.90 23.92 26.22 24.77 27.26 28.71 32.76 33.79 34.75 35.45 35.99 36.26 36.70 37.48 38.28 38.56 38.86
27.24 27.41 27.56 28.58 29.90 29.64 27.07 25.65 25.61 25.81 25.62 21.08 25.05 24.09 26.25 26.58 31.87 33.17 34.13 34.64 35.16 35.62 35.97 36.17 36.42 36.99 38.03
33.46 33.99 34.07 33.80 32.13 27.44 23.32 22.42 20.45 22.04 25.11 22.83 22.64 22.69 24.12 24.59 26.54 31.89 32.88 33.58 33.75 34.26 34.81 35.39 35.99 36.56 36.02
24.77 25.23 27.16 25.56 30.44 26.12 22.56 20.95 20.67 19.99 22.79 21.13 22.44 22.75 20.09 21.51 22.53 25.22 25.86 30.14 31.91 33.04 33.99 34.59 35.15 33.07 32.68
22.73 23.03 23.78 24.01 24.96 25.17 24.83 23.39 21.58 20.38 24.67 25.13 22.48 21.94 21.90 20.41 22.32 24.88 25.11 25.46 25.58 27.11 31.24 32.91 33.99 34.28 32.35
21.66 21.46 21.99 22.40 23.05 23.74 24.76 25.04 25.50 23.93 24.57 24.42 21.34 20.59 20.26 19.33 19.04 22.97 24.26 25.25 25.66 25.54 26.77 30.50 33.46 34.93 35.78
20.45 21.31 21.72 22.32 22.70 23.04 23.69 24.04 22.31 23.24 24.65 23.89 23.41 22.75 21.84 19.98 19.57 20.94 22.64 24.21 26.32 26.12 26.62 26.41 28.03 30.03 30.02
20.56 21.42 21.97 21.35 21.10 21.53 20.80 21.32 20.89 20.35 23.30 23.85 22.44 22.66 20.94 21.31 21.74 21.12 23.53 22.75 25.92 26.46 26.57 27.22 29.32 31.23 31.36
20.32 20.09 20.35 20.41 20.16 20.86 20.72 20.43 18.97 19.11 19.11 21.32 23.08 23.30 22.88 22.30 20.86 22.30 23.25 24.16 25.40 25.84 26.54 27.07 29.09 30.51 30.87
19.53 19.53 18.90 18.90 19.24 20.77 22.17 20.31 18.62 18.73 18.96 20.29 20.58 20.34 20.99 23.19 27.15 22.37 23.63 24.30 26.04 27.21 28.28 26.73 27.13 30.01 31.18
18.86 18.85 19.33 20.38 20.91 18.64 19.66 20.08 19.47 19.51 19.74 20.57 20.68 21.28 18.95 16.78 23.14 30.54 25.77 26.48 27.21 27.08 27.38 27.20 26.91 28.98 31.23

GFSFLT2_sfc_wetblb_063.txt.gz
Wetbulb
24.90 26.09 25.42 26.74 28.83 28.66 29.96 28.96 30.09 36.25 37.70 38.49 38.96 39.49 39.87 40.21 40.50 40.90 41.47 42.07 42.88 43.56 44.16 44.56 45.23 45.45 45.70
23.57 24.39 25.03 26.55 26.73 26.54 29.40 31.24 30.41 34.30 36.85 37.80 38.17 38.42 38.74 39.05 39.41 39.88 40.26 40.50 40.63 41.02 41.69 42.42 43.14 43.67 44.21
24.33 24.87 25.13 25.70 26.05 27.03 26.97 27.92 29.91 33.71 35.38 35.72 36.67 37.28 37.90 38.59 39.09 39.09 38.81 38.82 39.05 39.17 39.58 40.33 41.14 41.98 42.65
25.26 24.59 24.29 25.95 25.43 25.40 25.47 26.66 26.39 29.30 31.86 33.39 35.41 36.11 36.72 37.04 36.95 36.70 36.57 36.95 37.64 38.10 38.35 38.85 39.49 40.48 41.66
24.53 24.06 23.05 26.15 24.89 25.99 24.63 25.42 25.94 27.27 27.04 26.45 27.07 27.40 29.03 32.46 33.02 34.14 34.60 35.93 37.22 37.95 38.61 38.86 38.98 39.44 40.51
18.28 26.55 25.44 25.05 25.98 24.84 24.43 23.59 22.98 26.89 24.39 26.03 27.66 26.44 27.26 27.44 32.32 34.40 35.58 36.33 36.66 37.10 37.36 38.02 38.22 38.97 39.51
26.51 25.42 24.51 25.84 26.04 24.79 25.53 24.85 24.76 26.68 25.77 23.37 25.87 24.34 26.43 27.79 32.68 33.93 34.95 35.49 36.16 36.68 36.77 37.15 37.54 38.28 38.78
26.38 26.70 26.56 28.28 29.55 28.97 27.21 25.00 25.38 25.75 25.34 20.34 24.19 23.35 25.89 26.49 32.01 33.42 34.26 34.94 35.47 36.02 36.16 36.35 36.34 36.62 37.16
33.05 33.56 33.56 33.32 31.76 26.99 23.07 22.51 20.37 21.76 24.49 22.14 21.91 22.41 23.99 24.44 26.34 31.85 33.31 33.99 34.39 34.70 35.04 35.29 35.45 35.95 35.15
24.44 24.89 26.54 25.01 29.85 25.43 21.41 20.22 20.59 19.50 22.30 20.15 21.81 22.46 18.67 21.42 21.41 24.72 26.49 30.32 31.95 32.91 33.80 34.21 34.54 31.83 31.75
22.01 22.30 23.11 23.32 24.27 24.52 24.24 22.51 20.74 19.59 24.15 24.71 21.30 21.79 21.27 19.97 21.50 23.43 24.39 24.86 25.05 26.44 30.48 31.83 32.88 32.73 30.12
21.06 20.90 21.48 21.99 22.48 23.07 23.72 23.54 24.54 23.61 24.82 24.86 21.29 19.69 19.15 18.12 17.79 21.92 23.60 24.09 24.39 24.29 25.06 28.96 32.02 33.67 34.86
19.87 20.84 21.28 21.65 21.73 21.07 21.73 22.16 21.84 23.07 24.72 24.35 22.93 22.04 21.19 19.13 18.45 19.76 21.28 22.81 24.12 23.53 24.34 24.88 25.17 26.44 25.90
19.71 20.81 21.28 20.05 19.78 20.26 19.23 19.71 19.85 19.89 22.73 24.01 22.61 21.61 20.13 20.61 20.63 19.50 21.15 20.26 22.70 24.53 25.06 26.20 27.50 28.38 28.29
19.76 19.72 19.35 19.54 19.13 19.81 18.97 19.04 18.22 18.56 19.24 21.48 22.91 22.62 21.93 21.31 19.84 20.68 20.88 21.30 22.95 24.11 25.18 25.14 26.52 27.43 28.84
18.60 18.08 17.89 18.17 18.47 19.98 21.26 18.86 17.90 18.56 19.02 20.42 20.55 20.21 20.55 22.10 25.86 20.78 21.65 22.40 23.64 24.43 25.76 25.19 26.09 28.89 29.54
17.02 17.07 18.19 19.10 20.32 17.82 18.60 19.13 18.98 19.68 20.49 21.50 21.04 20.80 19.14 17.29 23.63 29.96 24.60 24.98 25.38 26.10 26.94 26.58 25.95 27.53 28.64

GFSFLT2_sfc_wetblb_066.txt.gz
Wetbulb
25.49 25.79 24.59 26.19 28.34 27.94 29.03 27.85 29.01 35.84 37.60 38.03 38.50 39.20 39.80 40.13 40.44 41.05 41.41 42.18 42.81 43.71 44.28 44.83 45.05 45.32 45.80
23.03 23.72 24.30 26.37 26.62 25.87 28.97 31.14 29.93 33.91 36.55 37.60 37.84 38.18 38.62 39.07 39.38 39.89 40.35 40.94 41.49 41.73 41.90 42.40 43.03 43.78 44.58
23.10 24.24 24.60 25.21 24.75 25.74 26.23 27.77 29.14 33.52 35.34 35.58 36.32 37.15 37.75 38.45 38.80 38.87 38.77 38.98 39.18 39.44 39.91 40.36 41.09 41.96 42.96
24.11 22.47 24.24 25.35 24.56 24.98 25.33 26.29 26.53 29.04 31.79 33.11 34.91 35.82 36.38 36.80 36.78 36.49 36.36 36.87 37.80 38.43 38.72 38.75 39.08 40.09 41.25
24.57 24.56 20.94 27.67 25.49 26.11 24.62 25.40 25.87 26.84 26.77 26.66 26.82 27.14 28.54 32.37 32.81 33.80 34.32 35.78 37.05 38.04 38.54 39.09 39.32 39.65 40.14
19.31 23.82 26.26 24.43 25.18 24.69 24.57 24.48 23.22 27.05 24.46 26.08 27.57 26.47 27.42 27.55 32.09 34.13 35.40 36.25 36.89 37.25 37.59 38.00 38.47 38.88 39.44
26.01 24.78 24.02 25.37 25.91 24.93 25.49 24.76 24.80 26.95 25.60 23.24 26.04 24.51 26.67 27.57 32.18 33.72 34.99 35.68 36.26 36.59 36.79 37.19 37.68 38.17 38.50
26.06 26.32 25.88 27.42 27.60 27.72 25.70 24.43 25.03 25.59 25.03 20.53 24.43 23.32 25.57 25.95 31.44 33.20 34.33 35.12 35.60 36.10 36.35 36.55 36.78 37.13 37.31
32.61 33.09 33.06 32.77 31.09 26.42 22.18 21.28 19.30 21.30 24.09 21.92 21.67 21.83 23.75 24.30 26.10 31.49 33.15 34.07 34.50 34.63 34.97 35.19 35.47 35.73 34.97
23.93 24.41 25.89 24.42 29.57 24.90 19.32 19.74 20.11 19.29 21.94 20.66 21.21 22.09 17.68 21.44 22.01 24.58 26.07 30.12 31.75 32.75 33.52 34.06 34.38 31.79 31.08
21.33 21.70 22.52 22.79 23.80 24.07 23.59 18.92 20.18 19.83 23.67 24.26 19.81 21.21 21.06 19.37 21.26 23.36 23.85 24.11 24.24 25.84 29.89 31.28 32.12 32.07 29.13
20.55 20.39 20.99 21.56 22.02 22.59 23.16 22.77 22.82 22.13 23.14 23.32 20.55 18.59 19.59 18.33 17.63 21.31 22.09 23.39 23.81 23.62 24.38 27.86 30.74 32.33 33.69
19.43 20.26 20.67 20.98 21.10 20.14 20.60 20.75 19.80 20.59 22.24 21.70 21.60 21.27 20.72 18.55 17.85 19.24 20.56 22.54 23.84 22.89 23.11 23.28 23.35 25.02 24.65
18.84 19.95 20.51 17.36 19.01 19.14 17.98 18.68 18.15 18.97 21.69 21.86 21.10 20.73 19.67 20.15 20.15 18.92 20.65 19.53 21.75 22.99 23.09 24.41 26.10 27.23 27.35
18.32 18.80 18.55 18.45 18.31 19.10 18.08 18.40 17.79 18.33 18.43 21.54 23.07 23.25 22.85 22.11 19.69 20.31 20.35 20.47 21.88 21.88 22.35 22.72 24.56 26.06 26.99
17.52 16.93 16.62 16.65 17.05 19.85 20.19 17.87 17.57 18.29 18.84 20.78 21.58 21.49 22.24 24.15 26.16 20.23 20.99 21.48 22.77 23.66 24.75 23.20 23.59 26.93 27.97
15.97 15.69 16.35 17.26 20.13 17.28 17.57 18.65 19.23 19.69 20.74 22.72 23.92 23.36 20.24 18.61 25.61 31.41 25.54 25.77 25.98 26.13 26.53 25.76 25.39 27.15 28.57

GFSFLT2_sfc_wetblb_069.txt.gz
Wetbulb
31.74 32.96 32.36 33.19 34.34 35.48 35.31 35.09 35.32 36.55 37.82 38.20 38.57 39.27 39.72 40.05 40.55 41.04 41.67 42.14 42.92 43.80 44.74 45.33 45.95 45.93 45.99
30.81 31.43 31.19 33.05 33.61 33.09 33.30 34.12 34.38 35.08 36.76 37.70 38.29 38.48 38.75 39.05 39.44 39.93 40.39 41.06 41.48 41.90 42.26 42.99 43.82 44.34 44.72
28.77 30.88 31.35 32.35 32.69 32.84 32.10 32.66 32.81 34.21 35.58 35.98 36.69 37.21 37.73 38.31 38.75 39.00 38.87 39.10 39.39 39.63 40.14 40.74 41.44 42.26 43.21
29.78 30.29 30.78 32.40 31.60 29.65 29.67 31.68 31.15 32.54 33.82 34.43 35.56 35.97 36.63 36.96 36.82 36.62 36.65 36.98 37.84 38.51 38.86 39.07 39.40 40.15 41.15
30.08 30.19 30.08 29.75 28.82 29.83 28.36 29.89 30.98 32.41 31.76 32.24 32.47 32.68 33.32 34.36 34.11 34.29 34.69 35.93 37.11 38.01 38.58 39.18 39.47 40.16 41.01
30.04 28.50 28.91 28.74 29.34 28.75 28.44 27.37 24.99 32.64 30.28 29.79 32.38 30.70 32.04 32.60 33.74 34.60 35.64 36.28 36.69 37.34 37.80 38.24 38.55 39.12 39.51
29.25 28.36 27.65 29.04 30.00 28.34 28.83 27.97 26.77 30.34 29.83 27.05 30.58 29.22 31.51 31.52 33.19 33.96 34.84 35.45 36.22 36.83 37.18 37.37 37.64 38.27 38.86
30.37 29.96 30.78 31.58 31.37 30.76 29.81 28.83 28.84 29.48 29.74 23.65 29.34 28.05 30.22 30.83 32.54 33.27 34.04 34.83 35.26 35.83 36.49 36.70 36.61 36.83 37.27
32.38 32.76 32.87 32.72 31.98 29.93 27.25 25.20 22.59 25.43 28.46 25.77 27.16 27.43 28.54 28.48 30.50 31.97 32.74 33.60 34.16 34.66 35.03 35.16 35.48 35.93 35.21
28.49 28.31 28.67 28.16 29.73 28.29 26.96 23.25 22.61 22.17 28.58 24.71 25.72 25.29 23.24 28.68 29.41 30.14 29.62 31.16 31.95 32.77 33.54 33.97 34.09 32.70 32.52
25.86 26.41 26.83 27.15 27.53 27.77 27.38 25.45 22.10 22.49 27.22 26.70 25.08 24.44 23.09 23.20 26.36 28.31 28.84 29.11 29.10 29.70 30.79 31.41 31.88 31.93 30.10
24.20 24.45 24.82 25.41 26.18 26.22 25.96 25.92 26.18 24.83 26.43 25.93 22.72 22.79 22.17 21.54 21.56 26.86 28.80 29.33 29.38 27.97 28.53 30.15 31.12 32.02 32.95
23.08 23.76 24.44 24.79 24.84 24.64 25.20 25.42 24.52 24.61 25.05 24.37 23.41 23.52 23.48 21.58 21.64 23.12 24.57 27.33 28.71 27.94 27.82 27.94 28.07 28.76 28.20
22.47 23.06 23.70 23.70 23.36 24.19 22.81 23.51 22.60 23.86 28.13 27.13 25.12 24.13 22.68 23.75 23.67 22.66 25.50 23.71 27.84 28.15 28.48 28.34 29.06 28.95 28.58
21.46 21.25 21.57 22.05 21.98 23.49 22.65 22.40 21.65 22.31 23.09 26.39 28.11 27.45 26.45 24.91 22.83 24.88 25.43 25.93 27.65 27.52 27.19 25.86 27.61 29.28 29.62
20.55 20.29 19.66 19.96 20.82 22.83 25.02 22.62 21.19 22.33 23.78 25.82 25.95 25.69 27.23 28.63 28.64 24.53 26.18 26.37 28.09 28.77 28.19 25.62 26.20 29.89 31.47
19.57 19.39 19.55 19.97 22.02 21.57 22.09 22.62 22.94 24.32 25.23 26.57 27.56 26.43 23.04 21.89 28.74 33.31 29.66 30.11 30.19 28.92 30.38 29.59 28.34 30.07 31.88

GFSFLT2_sfc_wetblb_072.txt.gz
Wetbulb
32.34 34.17 33.87 34.84 36.51 37.71 37.99 37.90 37.87 38.37 38.92 38.86 38.80 39.54 40.21 40.51 40.78 41.20 41.70 42.33 42.87 43.47 44.47 45.25 45.79 46.16 46.50
32.34 33.04 34.33 35.32 35.07 35.38 35.98 36.35 36.18 36.88 37.62 38.05 38.78 38.90 39.21 39.48 39.65 40.15 40.50 40.99 41.34 41.94 42.33 42.95 43.70 44.14 44.78
30.74 34.13 33.45 33.87 33.86 35.57 35.27 35.03 35.42 36.33 37.07 37.30 37.76 38.05 38.56 38.96 39.25 39.43 39.27 39.39 39.65 39.83 40.28 40.84 41.45 42.10 43.02
32.37 32.64 33.59 35.17 34.76 32.58 32.14 33.58 33.37 35.07 36.15 36.71 37.12 37.17 37.59 37.94 38.01 37.66 37.38 37.61 38.19 38.66 38.80 39.03 39.35 40.22 41.32
32.38 33.10 33.04 32.92 31.71 32.35 30.43 31.79 33.05 34.38 34.02 34.77 35.37 35.49 36.16 37.18 36.66 36.52 36.55 36.95 37.47 38.17 38.87 39.26 39.37 39.70 40.61
32.05 31.16 31.91 31.82 31.52 30.28 29.87 29.08 27.12 34.52 33.03 32.15 34.84 33.68 35.16 35.70 36.52 36.46 36.67 36.84 36.90 37.40 37.88 38.18 38.53 38.95 39.57
31.21 30.82 29.90 30.83 31.05 30.04 29.43 29.51 28.50 32.08 32.06 29.45 33.23 31.85 34.68 34.92 36.06 36.05 36.15 36.23 36.54 36.81 37.03 37.38 37.68 38.28 38.88
32.16 31.38 31.89 33.02 33.12 32.27 31.68 30.89 31.50 32.74 33.13 27.96 32.01 31.03 33.57 34.56 35.69 35.66 35.76 35.92 35.95 36.14 36.41 36.68 36.77 37.00 37.44
32.48 33.18 33.44 33.46 32.90 31.25 29.28 28.71 26.56 28.15 31.65 29.25 30.58 30.42 31.97 32.32 33.44 34.64 34.36 34.38 34.87 35.42 35.57 35.66 35.83 36.13 35.39
31.45 31.70 31.91 31.73 31.32 30.88 30.09 25.87 24.88 24.77 32.01 27.30 28.22 28.19 25.43 30.31 31.64 32.81 32.44 33.99 34.17 34.50 34.72 34.70 34.70 32.84 32.65
29.69 30.34 30.88 31.26 31.34 31.59 30.92 28.12 24.93 24.36 29.77 28.98 27.55 26.68 25.80 25.43 28.55 31.48 31.94 31.95 32.59 33.28 33.82 33.91 33.83 33.23 31.52
28.01 28.48 28.82 29.38 30.25 30.20 29.56 29.33 29.13 27.94 29.58 28.70 24.39 24.36 23.54 22.19 23.39 29.40 31.51 32.27 32.13 31.00 31.95 33.32 33.75 33.99 34.26
27.02 27.72 28.44 28.66 28.40 29.04 30.83 30.55 29.45 29.69 29.72 28.33 26.61 25.07 24.38 22.83 23.52 25.39 26.76 29.21 30.86 30.80 31.08 31.10 30.98 31.42 30.25
26.52 27.02 27.72 27.67 27.65 29.03 26.81 27.50 25.74 27.46 32.30 31.25 30.05 27.64 24.16 25.56 25.32 24.64 27.64 25.50 29.82 30.56 31.04 30.92 30.98 31.13 30.44
25.37 25.23 25.82 26.69 26.81 28.13 26.40 26.46 25.12 24.91 26.49 30.41 32.01 31.14 29.56 27.61 25.13 26.66 26.84 27.51 30.37 30.62 29.93 28.61 30.20 31.40 31.43
24.56 24.51 24.12 24.46 24.69 26.12 27.56 27.02 25.17 25.10 25.95 29.13 29.49 28.18 29.46 30.75 31.49 27.62 28.88 29.22 31.50 31.73 31.67 29.63 29.75 32.81 33.18
23.73 23.64 23.42 23.72 25.00 25.32 26.25 26.56 26.01 26.05 27.05 29.13 29.06 27.96 24.90 24.11 30.68 34.45 30.62 31.48 31.16 30.53 31.06 30.97 30.09 31.94 33.78

GFSFLT2_sfc_wetblb_075.txt.gz
Wetbulb
34.45 35.08 33.91 34.20 35.17 35.89 37.01 36.45 37.22 39.45 40.09 40.22 40.19 40.18 40.74 41.40 41.61 41.91 42.29 42.68 43.13 43.86 44.52 44.72 45.34 45.67 46.07
32.87 32.86 32.13 34.79 34.75 34.16 35.01 36.95 36.27 37.98 39.31 39.31 39.47 39.94 40.25 40.49 40.62 40.92 41.12 41.45 41.75 42.17 42.61 43.13 43.57 44.01 44.68
30.89 33.59 33.76 34.34 33.94 35.02 35.13 35.14 35.94 37.71 38.33 38.62 39.26 39.46 39.69 39.97 40.19 40.29 40.18 40.19 40.34 40.24 40.49 40.91 41.57 42.27 43.05
32.08 32.82 33.47 34.54 34.31 32.59 31.93 33.51 32.23 34.97 36.62 37.43 38.43 38.63 39.13 39.49 39.54 39.16 38.85 38.87 39.04 39.19 39.26 39.40 39.64 40.39 41.27
31.60 32.72 33.11 31.85 30.78 31.69 29.78 30.58 31.63 33.26 32.54 33.23 33.18 33.68 34.63 37.11 37.26 37.91 38.20 38.57 38.70 38.98 39.26 39.32 39.25 39.76 40.29
32.82 30.21 30.91 30.98 30.77 29.36 28.67 27.43 25.98 32.66 30.33 30.14 33.19 31.72 33.13 33.86 37.30 38.06 38.24 38.25 38.32 38.39 38.46 38.53 38.54 38.70 39.10
30.71 30.37 29.19 30.02 29.73 28.82 28.90 29.05 27.92 30.86 30.42 28.21 31.77 30.49 32.81 34.26 37.12 37.61 37.96 38.12 37.96 37.97 37.91 37.91 38.06 38.33 38.56
31.60 30.61 30.42 31.28 31.40 31.07 30.29 29.59 30.02 30.80 31.93 26.52 30.28 29.43 31.83 32.91 36.65 36.87 37.09 37.21 37.07 36.99 37.13 37.21 37.30 37.54 37.71
32.74 33.41 34.08 34.31 33.76 30.35 27.45 27.05 26.22 26.69 29.56 27.16 28.06 28.33 29.20 29.39 30.92 35.56 35.96 36.45 36.53 36.77 36.90 36.79 36.77 36.75 35.45
29.91 30.63 31.83 31.06 33.26 30.11 28.59 26.00 24.99 24.52 28.96 27.05 26.93 26.46 24.95 27.78 28.53 29.58 29.42 33.91 35.32 35.87 35.88 36.27 36.45 33.29 31.95
28.00 28.26 29.00 29.47 29.83 30.20 30.30 29.42 25.97 24.76 28.45 28.85 24.62 25.29 24.83 24.17 26.39 27.64 27.99 28.70 29.64 31.18 34.22 34.76 34.88 34.44 31.17
26.76 27.20 27.73 28.55 29.48 29.67 29.08 28.99 29.24 27.76 28.17 27.90 24.90 23.93 22.65 21.49 21.11 24.86 26.70 27.87 28.49 28.65 29.43 32.43 34.20 34.76 35.28
26.25 26.94 28.18 28.42 28.20 27.85 29.49 29.92 29.33 29.76 29.60 28.02 27.48 26.33 24.76 22.33 21.69 23.00 24.65 25.81 27.53 27.25 29.51 30.30 30.12 30.75 29.38
26.43 26.93 27.41 27.20 26.64 27.92 26.79 26.55 25.35 25.93 28.13 28.79 29.89 28.78 25.96 25.68 25.08 24.06 25.87 24.30 27.15 28.47 29.41 30.29 30.81 30.65 29.97
25.46 25.34 25.04 25.69 25.58 26.95 26.56 25.95 24.82 25.01 25.72 28.12 30.30 30.99 30.37 28.40 25.33 25.87 26.44 27.10 28.72 28.49 28.67 28.60 30.52 31.39 31.41
23.81 23.90 23.37 23.46 23.25 25.24 26.50 26.06 25.04 25.28 25.85 27.35 27.84 28.05 28.62 29.55 32.26 27.79 28.49 28.58 29.63 30.50 31.23 29.49 29.47 31.54 32.40
24.44 23.64 23.47 23.72 23.83 24.21 25.24 25.44 25.08 25.37 26.40 28.03 28.00 27.05 24.20 22.46 28.64 34.61 29.12 28.98 28.94 29.36 30.11 29.67 29.03 30.80 32.39

GFSFLT2_sfc_wetblb_078.txt.gz
Wetbulb
34.69 35.63 34.91 35.36 36.38 36.53 36.63 35.67 35.63 39.42 40.13 40.56 40.82 40.93 41.03 41.45 42.05 42.43 42.67 43.06 43.57 44.09 44.58 45.18 45.47 45.80 45.91
33.49 33.42 33.05 33.92 33.93 33.43 34.43 35.66 33.71 37.88 39.62 40.01 40.07 40.11 40.61 41.00 41.22 41.43 41.66 41.92 42.18 42.42 42.85 43.25 43.61 44.09 44.63
30.23 32.33 32.14 31.75 29.92 31.27 31.44 31.92 34.70 37.71 37.91 38.25 38.92 39.63 40.11 40.61 40.71 40.92 40.82 40.91 41.04 40.95 41.06 41.30 41.63 42.33 43.09
28.39 29.71 31.40 31.40 30.08 29.31 29.22 30.35 29.70 33.46 34.95 36.60 37.75 38.36 38.94 39.19 39.36 39.15 39.01 39.30 39.78 40.02 40.09 40.23 40.27 40.87 41.54
29.08 29.68 27.79 28.57 27.85 28.31 25.95 26.31 27.95 29.57 28.91 29.41 29.48 31.22 32.40 35.98 36.23 37.31 37.93 39.10 39.53 39.87 40.14 40.14 39.93 39.98 40.48
27.81 27.70 28.17 26.60 26.76 26.63 24.80 23.34 23.06 28.79 27.13 29.00 29.56 29.73 30.94 31.32 36.23 38.01 38.55 38.84 39.20 39.57 39.86 39.51 39.51 39.57 39.86
28.64 27.89 25.87 26.29 25.01 23.61 24.99 22.77 24.93 29.03 27.57 26.55 29.13 27.98 30.57 32.51 36.17 37.27 38.01 38.24 38.40 38.73 38.75 38.57 38.60 38.79 39.00
28.08 27.44 26.91 27.56 27.45 25.48 24.23 25.29 27.15 27.57 27.34 24.44 26.57 26.38 28.98 29.11 35.05 35.85 36.54 37.18 37.58 37.72 37.94 38.10 37.98 38.13 38.34
33.16 33.98 34.46 34.84 33.77 25.55 21.11 19.56 23.25 24.50 26.88 24.28 24.28 25.20 27.38 27.39 28.51 34.10 35.07 35.25 35.43 36.10 36.99 37.38 37.52 37.51 36.23
26.22 27.61 29.34 27.89 33.38 27.56 21.08 16.60 25.12 23.86 25.02 21.07 22.05 23.17 22.93 24.24 25.12 27.04 26.70 31.80 33.68 34.22 35.07 35.95 36.24 33.41 32.59
23.68 23.91 25.25 25.86 27.08 27.60 28.00 28.11 25.96 25.36 28.03 28.60 22.82 25.40 24.50 23.74 23.97 23.67 25.61 25.84 26.90 28.19 31.91 33.62 34.47 34.50 31.85
23.45 22.77 23.52 25.34 28.44 28.57 28.38 28.48 28.88 27.53 28.84 28.53 24.93 24.43 23.14 22.25 21.92 23.69 25.20 26.52 25.74 25.97 27.00 30.28 33.38 34.36 34.96
21.67 22.55 26.95 27.68 28.09 27.71 29.00 29.66 29.29 29.31 29.58 27.83 26.91 26.64 25.98 23.69 23.06 23.73 25.15 26.25 27.05 26.11 24.21 27.22 27.54 28.89 28.13
19.94 26.17 26.67 26.36 25.89 27.13 25.93 26.31 25.32 25.79 29.15 29.79 28.54 28.17 26.24 26.62 26.22 24.52 25.62 24.65 27.11 27.76 28.23 28.77 29.37 29.74 29.72
25.12 24.40 24.62 25.00 24.74 25.81 25.37 24.64 23.40 24.50 25.48 28.12 30.02 29.95 29.39 28.23 26.32 27.43 27.50 27.78 29.20 28.59 28.13 28.13 30.47 31.07 30.73
23.91 23.48 23.35 23.21 23.13 24.08 24.23 23.80 24.02 24.67 25.21 26.52 27.28 27.47 27.76 27.86 31.70 27.52 27.37 26.92 28.93 29.56 29.92 28.37 28.17 30.95 31.38
24.29 23.72 23.65 23.60 24.01 23.15 22.67 23.73 24.07 24.98 25.58 26.89 27.01 25.59 22.31 20.61 26.22 33.43 27.80 28.63 29.23 29.30 29.71 29.32 28.51 29.80 31.61

GFSFLT2_sfc_wetblb_081.txt.gz
Wetbulb
35.84 36.08 35.14 35.35 36.63 38.05 38.06 36.47 36.28 39.45 40.53 41.05 41.41 41.60 41.79 41.85 42.12 42.65 43.12 43.41 43.75 44.24 44.59 45.09 45.61 45.90 46.05
34.00 34.16 34.04 34.76 34.22 33.74 34.84 35.85 34.64 37.85 39.92 40.34 40.19 40.17 40.65 41.12 41.43 41.80 42.11 41.90 42.06 42.35 42.59 43.14 43.48 44.08 44.71
30.42 31.47 31.02 31.17 30.56 32.31 32.82 32.73 34.27 36.93 37.35 37.92 38.50 39.07 40.00 40.51 40.87 40.69 40.48 40.62 40.91 40.93 41.11 41.49 42.03 42.58 43.21
30.60 30.41 31.52 32.68 31.49 29.92 28.89 29.46 28.97 32.22 33.89 35.13 36.92 37.42 37.83 38.42 38.79 38.00 38.19 38.71 39.37 40.03 40.48 40.71 40.98 41.27 42.09
30.65 29.38 27.38 27.70 27.15 26.36 25.52 25.79 25.91 26.66 27.16 28.12 28.23 29.69 30.69 34.57 35.28 36.38 37.65 38.93 39.59 40.16 40.48 40.66 40.61 40.84 41.17
26.66 27.38 26.11 24.93 25.26 25.27 23.59 22.06 22.26 27.39 27.22 27.90 28.91 28.41 28.93 29.20 35.26 37.33 37.80 38.21 39.04 39.44 39.60 39.77 39.94 40.03 40.20
27.47 26.68 25.54 25.37 24.02 21.85 23.93 20.64 21.28 26.76 26.58 24.83 26.60 26.55 27.75 30.83 34.89 36.25 36.93 37.25 37.78 38.35 38.58 38.91 39.03 39.26 39.35
27.62 26.44 25.81 26.05 25.36 23.92 22.67 23.56 25.39 26.14 26.29 19.44 24.36 25.38 26.44 27.89 33.68 35.03 35.85 36.05 36.26 36.50 36.94 37.41 37.87 38.44 38.87
32.93 33.88 34.16 34.41 33.75 24.60 20.86 18.10 19.23 23.51 25.20 23.71 23.35 24.56 26.36 25.76 26.64 32.91 33.82 33.85 34.27 34.96 35.58 36.00 36.29 37.07 36.34
25.11 25.90 27.40 27.32 32.56 26.28 19.12 12.49 22.30 18.51 24.45 22.25 20.25 24.89 21.30 23.32 24.47 26.56 25.41 30.61 32.59 33.24 33.73 34.20 34.75 32.86 32.08
22.55 23.37 24.72 25.44 26.27 26.57 26.62 21.97 24.71 25.18 28.87 28.00 24.62 25.59 24.74 23.92 23.48 24.22 25.93 25.19 25.63 27.53 31.03 32.36 33.30 33.79 31.17
23.42 22.32 22.50 25.95 27.83 28.04 28.16 28.57 28.81 27.44 29.04 28.70 25.46 25.08 24.02 23.05 22.52 24.07 25.58 26.68 25.74 25.54 25.94 29.44 32.52 33.90 34.81
20.71 20.58 26.79 27.28 27.81 27.51 28.78 29.33 29.01 28.61 27.90 28.69 27.29 26.55 25.68 23.58 23.14 23.79 25.21 26.14 27.17 25.72 24.79 26.29 26.43 27.89 27.56
18.89 25.72 26.49 25.81 25.33 26.55 25.16 25.62 24.71 21.60 23.57 25.01 28.51 27.57 24.96 25.64 25.67 25.14 26.97 25.38 28.81 28.37 27.93 29.02 30.30 30.62 30.27
24.72 24.17 24.39 24.84 24.37 25.13 24.59 23.87 20.93 20.32 22.06 23.73 26.68 27.09 27.26 26.10 25.20 26.51 26.74 27.17 28.55 28.33 28.57 28.49 30.34 31.23 30.72
24.36 24.06 23.21 23.17 22.92 24.10 24.32 16.47 20.64 21.13 21.76 23.48 23.35 24.21 25.42 26.11 30.39 26.19 26.49 26.20 27.16 27.28 27.43 27.52 28.26 30.83 30.87
23.47 23.62 23.55 23.37 23.75 22.24 16.60 17.96 20.19 20.96 22.06 23.14 21.60 22.17 21.15 19.12 25.02 31.38 23.26 26.54 27.55 27.64 28.95 29.31 28.48 29.88 30.79

GFSFLT2_sfc_wetblb_084.txt.gz
Wetbulb
36.16 36.64 35.79 36.46 37.67 38.98 38.94 38.57 38.07 40.56 41.02 41.35 41.72 41.97 42.21 42.25 42.34 42.56 43.18 43.69 43.99 44.66 44.90 45.51 46.20 46.37 46.79
34.40 34.58 34.81 36.05 35.99 34.31 35.28 36.31 35.10 37.26 39.72 40.63 40.77 40.28 40.41 40.68 41.21 41.94 42.23 42.25 42.26 42.79 43.25 43.77 44.24 44.63 45.23
31.18 32.74 33.07 32.91 31.91 31.29 32.68 33.13 33.98 36.09 36.67 37.65 38.10 38.53 39.38 39.96 40.10 40.73 40.62 40.18 40.42 40.72 41.21 41.90 42.44 43.07 43.75
31.01 31.44 31.86 31.96 30.00 28.44 29.02 28.48 27.21 31.06 32.37 34.49 36.39 37.00 37.63 38.14 38.17 37.92 37.88 38.37 39.22 40.02 40.64 41.08 41.26 41.67 42.58
29.73 27.78 24.68 26.27 25.37 25.09 24.78 24.46 24.47 25.23 26.33 27.39 27.48 27.89 29.08 33.68 34.43 35.79 37.12 38.68 39.40 39.87 40.46 40.97 41.02 41.31 41.92
19.74 24.75 24.47 23.99 23.82 23.57 21.42 19.56 19.37 26.49 25.88 26.86 27.05 26.91 27.46 27.85 34.46 36.68 37.21 37.80 38.57 38.99 39.35 39.70 39.83 40.27 40.55
25.66 25.02 24.36 24.32 21.22 19.64 22.31 18.01 19.46 25.59 25.32 23.69 25.70 25.38 26.90 29.61 33.94 35.34 36.40 37.04 37.38 37.63 38.09 38.42 38.81 39.18 39.47
27.15 26.08 25.38 25.54 24.36 22.43 21.61 22.70 25.00 25.53 25.49 17.98 23.78 24.57 25.92 27.31 32.86 34.08 34.75 35.13 35.42 35.67 36.27 36.88 37.13 37.65 38.25
32.42 33.22 34.02 34.19 32.92 24.65 20.77 17.64 18.83 23.26 24.76 23.49 23.27 23.82 24.67 24.67 26.14 32.19 33.59 33.65 34.03 34.59 35.31 35.49 35.68 36.18 35.40
24.90 25.38 26.84 28.11 32.05 25.90 18.53 11.51 13.64 15.97 24.21 26.07 23.01 23.25 18.66 23.01 24.21 25.83 25.75 31.26 32.94 33.67 34.18 34.40 34.73 32.40 31.63
22.18 23.23 24.63 25.00 25.81 26.08 25.66 20.77 22.37 23.25 27.78 27.49 22.96 25.91 24.74 19.87 22.75 23.73 24.49 25.60 25.53 27.21 31.34 32.74 33.32 33.51 30.61
23.07 21.71 22.19 23.38 27.41 27.71 28.16 28.54 28.85 27.13 28.77 28.93 24.82 21.09 22.16 21.67 21.85 22.66 24.19 26.15 25.02 25.40 25.70 29.31 32.55 33.53 33.87
19.96 19.39 23.91 26.73 26.94 27.26 28.38 28.92 28.56 28.93 26.15 16.73 23.66 22.32 24.48 23.53 22.87 24.23 25.09 25.84 26.85 23.34 25.09 26.70 26.53 29.41 28.41
17.29 25.37 26.19 25.59 24.91 26.08 24.69 25.00 24.26 20.60 21.72 21.51 19.95 19.75 23.91 24.65 24.70 24.33 26.14 24.70 25.48 27.28 27.27 27.76 28.62 29.51 30.49
24.97 24.54 24.55 24.93 24.57 24.98 24.47 23.99 20.39 21.08 19.99 22.01 24.41 24.46 24.85 24.09 23.87 25.56 25.70 26.11 26.60 26.32 26.16 25.97 27.82 29.36 30.87
24.46 24.23 23.50 23.38 23.30 24.04 23.00 17.75 18.78 20.18 19.28 20.39 21.14 21.03 24.01 24.90 29.05 24.88 25.68 24.51 25.56 25.83 25.26 25.91 27.07 29.54 31.52
23.52 22.97 23.26 23.35 23.69 21.36 12.37 15.01 17.46 17.97 18.58 18.55 14.74 20.83 19.70 18.19 22.27 30.55 21.53 22.88 25.92 26.34 27.29 28.13 27.74 29.04 30.76

GFSFLT2_sfc_wetblb_087.txt.gz
Wetbulb
36.26 36.64 36.36 37.29 38.37 39.87 39.54 39.05 39.13 41.19 41.36 41.25 41.78 42.29 42.38 42.54 42.46 42.67 43.09 43.70 44.21 44.92 45.38 45.91 46.29 46.45 46.91
34.75 34.85 35.34 36.48 36.77 36.16 36.01 36.76 34.58 36.80 39.27 40.29 40.92 40.83 40.77 40.74 40.74 41.35 42.06 42.64 42.72 42.83 43.11 43.96 44.44 44.89 45.60
31.81 33.60 33.59 33.19 32.56 33.13 32.61 31.14 32.91 35.55 36.09 37.00 37.76 38.32 39.26 39.80 40.19 40.03 40.31 40.71 40.61 40.57 41.06 41.69 42.41 43.20 44.00
31.44 31.32 32.12 31.44 29.11 28.09 26.37 25.70 26.10 29.99 31.39 34.13 35.52 36.31 36.73 37.64 38.12 37.95 37.94 38.40 39.17 40.00 40.69 41.10 41.54 42.24 42.70
25.85 26.32 23.59 25.53 24.43 23.75 23.83 23.54 23.84 24.57 25.86 26.76 27.16 27.24 27.99 32.81 33.46 35.28 36.96 38.48 39.25 39.85 40.34 40.76 41.04 41.46 41.82
17.01 24.13 23.68 23.64 23.35 23.05 20.94 19.27 18.82 25.54 24.98 25.53 26.52 25.71 26.88 27.28 33.98 36.40 36.78 37.33 38.33 38.86 39.17 39.45 39.58 40.11 40.56
25.28 24.39 24.14 24.48 20.91 19.55 21.67 17.02 18.38 24.99 24.89 23.26 25.12 24.78 26.42 28.74 33.51 34.99 35.89 36.54 36.81 37.21 37.51 37.74 38.22 38.60 39.02
26.97 26.05 25.71 25.17 23.96 21.54 19.99 21.69 24.94 25.23 25.04 17.42 23.38 24.04 25.63 26.80 32.20 33.72 35.24 34.92 35.35 35.68 36.17 36.70 36.97 37.10 37.59
32.10 32.76 33.56 33.98 31.51 23.84 20.72 17.57 18.72 23.10 24.51 23.14 22.85 23.04 24.11 24.13 25.98 32.20 33.74 34.50 34.56 35.03 35.59 36.01 36.00 36.40 35.18
24.72 25.17 26.85 28.92 31.56 25.18 18.22 10.15 12.82 16.26 23.61 22.48 20.78 21.77 18.08 22.30 23.89 25.22 26.22 31.24 33.22 33.80 34.41 34.68 34.95 32.61 31.12
22.02 22.96 24.25 24.72 25.50 25.80 24.97 15.98 22.98 23.79 25.82 27.61 23.08 25.51 24.69 18.44 22.15 23.20 24.54 25.75 25.65 27.40 31.24 32.77 33.54 33.65 31.21
22.28 20.65 21.49 21.77 24.11 27.71 27.94 28.82 28.98 27.15 28.39 28.18 25.16 23.08 16.39 21.98 22.07 21.66 23.72 25.96 25.65 25.33 25.91 29.40 32.75 33.83 34.50
19.13 18.64 21.20 27.16 27.19 26.81 28.05 28.32 27.89 28.44 29.33 22.69 22.75 20.88 22.47 22.33 22.41 23.80 25.17 24.54 27.83 23.46 20.87 24.51 25.52 27.39 26.25
16.72 20.97 26.57 25.39 24.74 25.87 24.22 24.75 23.95 20.36 20.09 16.92 15.86 13.52 19.21 23.33 24.22 23.31 24.72 23.72 23.29 27.43 26.10 26.28 27.14 27.67 27.63
23.90 24.78 24.94 24.98 24.71 25.30 24.22 23.86 22.18 16.53 21.51 20.78 22.09 21.43 21.28 21.08 21.71 23.51 23.67 23.62 26.10 25.31 24.05 24.52 26.09 27.07 27.72
24.68 24.34 23.57 23.28 23.23 24.00 24.38 20.65 19.53 18.20 16.73 15.25 13.46 15.46 18.33 22.09 26.87 22.15 22.43 22.58 24.48 24.33 23.30 23.88 25.52 27.99 29.34
23.55 23.21 23.09 22.84 23.07 22.49 18.49 13.10 17.11 16.76 16.77 16.27 7.68 15.83 17.97 16.59 21.46 29.89 21.88 16.73 22.54 24.10 25.23 25.76 26.21 27.62 29.10

GFSFLT2_sfc_wetblb_090.txt.gz
Wetbulb
36.71 37.03 36.96 38.28 38.76 40.22 40.06 39.34 39.40 41.13 41.37 41.31 41.59 42.01 42.39 42.62 42.47 42.54 42.84 43.29 43.76 44.53 45.38 45.84 46.27 46.48 46.72
35.21 35.25 35.81 36.84 37.05 36.71 37.11 37.58 35.66 36.87 39.24 40.29 40.72 40.54 40.50 40.54 40.50 40.65 41.34 41.83 42.52 42.80 43.18 43.70 44.19 44.70 45.31
31.43 32.62 32.89 33.34 32.81 33.43 32.91 31.67 32.43 35.22 35.75 36.82 37.56 37.72 38.11 38.96 39.79 40.04 40.15 40.32 40.78 41.04 41.16 41.51 42.24 42.89 43.71
30.81 31.74 31.37 29.46 27.86 26.71 25.84 25.64 25.83 29.24 30.93 33.41 35.24 36.14 36.36 37.16 37.82 38.13 38.06 38.48 39.36 39.91 40.47 41.13 41.51 42.07 42.74
25.50 25.85 23.29 25.42 24.28 23.56 23.60 23.25 23.30 24.28 25.55 26.31 26.86 27.12 27.63 32.19 33.12 34.96 36.57 38.26 39.20 39.82 40.25 40.67 40.65 40.86 41.41
21.36 24.02 23.38 23.33 23.13 22.83 20.42 18.78 17.81 24.69 24.63 25.14 26.11 25.58 26.75 27.25 33.45 36.28 36.76 37.36 38.16 38.91 39.06 39.23 39.37 39.57 39.77
24.91 24.17 23.95 24.27 20.95 19.28 21.07 16.40 17.56 24.54 24.76 22.92 24.89 24.49 26.36 28.23 33.19 34.76 35.62 36.77 35.92 36.66 37.20 37.61 37.97 38.31 38.62
26.77 25.88 25.60 24.88 23.50 21.02 19.49 20.82 24.50 25.09 24.80 17.29 23.20 23.93 25.47 25.56 31.72 33.87 35.60 35.05 35.87 35.97 36.45 36.77 36.98 37.32 37.71
32.06 32.63 33.29 33.68 29.70 23.28 20.14 17.68 18.40 22.70 24.12 22.82 22.43 22.55 23.99 23.91 25.68 32.25 34.03 34.15 34.50 35.18 35.63 35.87 36.22 36.61 35.38
24.14 24.93 26.98 29.56 31.01 24.46 17.87 9.58 12.48 15.60 22.91 21.05 20.30 21.30 17.27 21.95 23.59 25.13 25.45 30.84 33.19 33.54 34.06 34.58 34.86 32.73 31.64
21.62 22.78 24.01 24.60 25.18 25.33 24.41 18.40 23.08 23.98 26.65 27.51 20.18 25.19 24.32 19.81 22.00 23.57 24.26 24.97 26.19 27.52 31.17 32.53 33.47 33.66 31.04
21.65 19.82 20.80 21.21 22.07 24.02 27.86 28.71 28.99 26.89 28.42 27.65 24.23 23.99 22.11 22.09 21.25 21.24 21.58 25.29 25.33 25.49 25.61 29.21 31.94 33.39 33.82
18.51 17.80 18.78 25.00 26.77 26.65 27.56 28.20 27.33 27.47 28.70 28.52 27.22 25.16 22.50 22.07 21.45 22.45 23.81 22.45 25.11 23.19 20.79 22.64 25.09 26.58 25.60
16.15 18.92 25.29 25.48 24.86 25.78 23.78 24.43 22.62 15.51 19.68 14.58 11.93 10.74 13.61 19.56 21.04 21.50 23.30 22.37 21.34 23.83 25.05 25.45 26.36 26.79 26.71
20.13 24.57 24.57 25.22 24.54 25.36 24.36 23.47 22.05 14.31 14.41 18.63 21.26 19.70 18.36 18.06 19.38 21.05 21.30 21.81 23.43 23.22 20.89 23.71 25.22 26.01 26.49
22.16 24.53 23.81 23.59 23.23 23.34 24.26 23.00 20.40 15.74 13.19 12.57 9.81 12.36 15.22 20.83 25.15 19.95 19.08 19.72 22.07 22.04 20.56 21.75 23.34 26.56 27.49
16.71 23.28 23.35 22.97 22.84 22.19 22.23 21.32 18.67 14.52 15.81 11.67 4.49 10.11 13.95 14.82 20.69 29.32 21.26 21.28 18.65 22.61 23.81 23.19 22.83 25.27 27.43

GFSFLT2_sfc_wetblb_093.txt.gz
Wetbulb
38.34 39.49 40.36 41.33 41.32 42.57 42.05 41.40 41.50 41.27 41.36 41.36 41.55 41.91 42.32 42.47 42.47 42.46 42.59 42.83 43.31 44.29 45.19 45.55 45.61 45.58 46.27
37.66 37.33 38.01 38.62 38.61 39.05 38.35 38.85 37.21 37.63 39.44 40.29 40.69 40.48 40.27 40.24 40.59 40.94 41.10 41.54 42.01 42.74 43.60 43.56 44.07 44.48 45.01
35.00 36.09 36.79 36.79 35.92 35.79 34.57 34.52 35.49 35.66 35.93 36.35 37.43 38.29 38.38 38.53 39.17 40.17 40.52 40.62 40.78 41.10 41.35 41.67 42.21 42.79 43.76
35.07 34.61 34.52 33.35 34.00 34.51 34.18 34.09 34.08 33.37 32.90 34.30 35.95 36.57 37.08 37.35 37.85 38.21 38.31 38.54 39.13 39.79 40.48 41.09 41.59 42.06 42.54
33.14 33.07 33.01 32.77 32.73 31.65 31.33 31.59 32.34 31.91 32.65 33.92 34.26 34.49 34.65 34.29 34.68 34.93 36.29 38.04 39.15 39.87 40.34 40.52 40.79 40.67 41.25
30.95 32.02 30.76 31.29 30.93 30.78 30.04 29.42 28.33 31.97 31.63 32.26 32.80 33.31 34.20 34.81 33.90 36.25 37.24 37.74 38.14 38.77 38.61 39.10 39.29 39.43 39.65
31.19 31.27 30.58 31.20 30.34 28.74 28.63 28.63 29.16 31.99 31.00 30.33 32.14 31.80 34.12 33.03 33.32 34.83 35.93 36.83 36.67 36.60 37.14 37.65 37.99 38.33 38.72
32.84 32.06 31.91 31.26 30.71 30.31 29.81 29.56 30.45 30.85 30.95 28.47 30.89 30.77 32.46 32.67 31.76 34.93 35.74 36.77 35.56 36.07 36.42 36.88 37.05 37.48 37.93
32.91 33.16 33.38 33.75 31.75 30.65 29.69 29.03 27.99 28.39 30.06 28.60 29.58 28.56 30.22 31.07 32.21 32.61 33.21 33.95 34.56 35.18 35.74 35.81 36.12 36.54 36.53
28.76 28.81 30.12 33.28 31.65 30.03 29.05 27.80 27.71 27.43 29.16 27.66 28.07 28.05 27.83 30.19 30.75 31.80 32.09 31.77 32.88 34.03 34.22 34.57 34.89 34.71 34.03
27.04 27.92 28.70 29.48 29.52 29.55 29.19 28.23 27.34 26.77 30.16 29.55 28.02 28.16 27.84 27.10 29.17 30.23 30.87 31.16 31.57 31.95 32.24 32.48 32.95 33.93 33.05
25.87 26.43 27.10 27.97 28.73 29.35 29.29 29.51 30.08 28.85 30.17 30.14 27.51 27.23 26.27 25.06 25.12 29.25 30.00 30.49 30.70 30.44 31.12 31.82 32.91 33.41 34.07
25.46 26.15 27.55 28.65 29.36 28.58 28.70 29.51 30.18 30.33 30.72 30.43 29.00 28.20 26.98 24.53 24.32 25.88 26.30 29.39 29.83 29.85 30.76 30.50 30.56 31.33 30.28
25.96 27.00 28.03 28.24 26.96 27.65 26.49 26.78 25.82 26.73 28.10 26.89 25.48 23.57 24.15 24.86 24.83 23.48 26.19 24.81 29.86 30.05 29.75 29.69 30.44 31.19 30.80
25.94 26.27 26.60 25.89 25.89 27.48 26.62 26.13 24.44 24.71 25.34 26.24 26.73 26.10 24.94 23.42 22.66 24.79 25.31 26.51 28.34 28.69 27.74 27.48 29.55 30.47 30.56
26.51 26.52 25.94 25.81 25.47 25.90 25.99 25.14 23.98 23.42 23.36 24.11 23.34 22.80 24.56 26.80 26.99 25.01 26.06 26.01 27.78 28.46 28.06 25.88 26.78 30.01 31.34
25.94 25.73 25.84 25.53 24.84 24.21 24.10 23.52 22.78 22.70 23.23 23.18 21.39 19.65 19.56 19.30 25.93 29.56 26.02 26.99 27.05 26.96 27.76 27.17 26.92 28.75 30.09

GFSFLT2_sfc_wetblb_096.txt.gz
Wetbulb
42.58 41.83 42.03 44.39 44.63 45.56 44.56 44.82 44.34 41.98 41.93 41.72 41.75 42.00 42.30 42.42 42.55 42.67 42.88 43.05 43.25 43.87 44.92 45.17 45.40 45.35 45.98
40.79 40.59 41.77 41.92 42.52 42.10 41.09 40.77 40.97 38.64 39.75 40.36 40.69 40.55 40.28 40.21 40.53 40.95 41.27 41.48 41.74 42.15 42.77 43.56 43.68 43.72 44.28
39.94 40.13 39.07 40.19 39.98 39.65 38.98 38.07 37.34 36.37 36.41 36.45 37.70 38.63 38.94 39.08 39.20 39.36 40.28 40.82 40.90 40.88 41.03 41.38 41.87 42.49 43.47
40.23 39.24 38.87 37.47 38.65 37.67 37.52 38.67 38.08 36.97 35.76 34.52 36.33 37.14 37.87 38.30 38.28 38.41 38.71 39.04 39.26 39.72 40.38 41.04 41.44 41.89 42.55
38.61 37.83 37.24 36.27 36.61 36.58 35.93 36.31 36.81 35.72 35.34 36.33 36.59 37.34 37.74 37.24 36.40 36.32 36.47 37.57 38.96 39.74 40.29 40.58 40.77 41.00 41.17
36.58 36.50 35.86 35.92 35.09 34.94 34.46 33.19 32.16 35.42 34.10 34.95 37.03 36.14 37.21 37.60 35.40 35.90 37.28 38.20 38.59 38.80 38.92 38.60 39.13 39.38 39.79
34.33 34.57 33.55 34.59 34.62 32.60 32.43 32.06 31.78 35.17 33.61 33.11 36.01 34.86 37.39 36.26 35.03 35.22 36.52 37.02 37.76 36.87 37.18 37.89 38.24 38.53 38.86
35.95 35.09 34.91 34.72 33.95 33.57 33.11 33.06 33.43 34.36 34.18 31.21 35.39 33.92 36.48 36.58 32.28 35.30 36.13 37.36 37.23 36.30 36.72 37.00 37.31 37.63 37.98
34.09 34.01 33.83 33.15 34.14 34.02 32.00 31.00 31.26 31.64 33.51 31.24 33.51 32.00 34.07 34.26 35.21 33.19 33.96 34.89 35.91 36.05 36.39 36.66 36.36 36.60 36.97
31.71 31.40 32.17 33.86 33.85 32.78 32.58 30.39 30.99 30.71 32.06 29.98 30.62 30.96 31.11 34.42 33.83 34.47 35.01 34.92 34.38 34.88 35.83 35.61 35.31 35.02 35.66
30.88 30.95 31.32 32.12 31.84 32.29 31.87 31.32 29.33 29.62 31.81 30.36 28.61 28.73 29.35 29.99 32.55 34.02 34.12 34.12 34.44 34.40 34.89 34.80 33.83 34.10 34.02
28.81 28.72 29.51 30.48 31.22 31.75 31.27 31.28 31.10 30.21 31.21 31.28 28.16 28.02 26.96 26.04 27.66 32.63 33.51 34.03 33.78 32.75 33.68 34.17 34.86 35.04 35.22
28.12 29.09 30.44 31.60 31.40 30.36 30.53 30.64 31.11 31.68 31.81 31.53 29.39 28.88 27.72 25.89 25.88 27.53 28.57 31.79 33.05 32.55 32.93 32.63 32.36 32.97 32.50
29.01 30.19 30.72 29.80 28.80 28.94 27.86 27.86 27.00 27.63 32.05 31.09 29.52 28.60 26.58 26.76 26.48 25.78 28.43 27.52 31.99 32.37 32.32 31.51 31.99 32.66 32.53
28.81 28.95 28.99 29.11 27.18 28.27 27.68 27.14 25.23 25.31 26.44 28.97 29.69 29.04 28.32 27.29 25.11 27.98 29.11 29.88 31.76 31.73 29.88 29.26 31.29 32.05 32.36
29.11 29.12 28.57 28.29 27.60 27.32 27.10 25.90 24.82 25.19 25.58 26.77 26.20 25.41 27.08 29.05 29.87 27.51 29.03 29.68 31.62 30.62 30.40 27.65 28.43 31.66 32.76
28.67 28.77 28.70 28.17 27.32 26.85 26.06 24.79 24.17 25.08 25.99 26.44 24.58 23.26 21.20 21.12 28.15 31.58 27.80 28.81 29.18 29.44 30.12 29.60 28.65 30.30 31.74

GFSFLT2_sfc_wetblb_099.txt.gz
Wetbulb
43.12 43.22 43.55 44.08 44.21 45.37 44.79 44.68 42.88 42.95 43.04 42.77 42.48 42.46 42.59 42.76 42.87 42.79 42.86 43.02 43.04 43.38 44.07 45.05 45.25 45.22 45.47
41.04 40.99 42.78 43.61 43.49 42.86 41.64 41.93 40.91 39.55 40.70 41.15 41.32 41.21 40.78 40.56 40.53 40.54 40.83 41.16 41.40 41.93 42.40 43.17 43.80 43.87 44.27
40.83 41.41 40.34 40.88 40.53 40.17 38.94 37.72 37.96 37.86 37.83 37.95 38.51 39.01 39.59 39.64 39.56 39.66 39.48 40.09 40.82 40.85 40.95 41.32 41.88 42.53 43.51
40.44 39.01 38.95 37.97 38.81 36.40 35.11 36.46 35.76 37.06 36.50 35.96 36.68 37.45 38.20 38.97 38.99 38.58 38.40 39.02 39.48 39.67 40.17 40.91 41.50 41.91 42.52
38.24 37.45 36.56 35.03 34.49 34.87 33.28 33.60 33.64 32.69 32.27 33.29 33.34 33.99 35.04 37.90 37.48 37.26 36.98 37.25 38.30 39.63 40.31 40.80 41.02 41.07 41.50
38.02 36.29 35.24 34.95 33.68 32.42 31.34 29.83 28.71 32.42 30.67 31.19 33.71 32.18 34.19 34.09 37.08 35.79 36.91 37.90 38.79 39.44 39.64 39.34 39.08 39.50 40.05
34.62 32.88 32.04 32.68 32.83 30.63 30.03 29.64 29.33 31.75 30.48 29.10 32.41 31.02 33.87 35.19 35.80 35.43 36.59 37.83 38.13 38.72 37.82 37.81 38.32 38.75 39.07
34.46 33.12 33.54 33.41 32.96 31.83 30.96 30.67 30.72 31.08 30.93 27.84 31.61 30.16 32.74 33.12 34.71 34.07 36.75 37.38 38.00 37.63 37.28 37.84 37.74 37.99 38.42
35.54 35.19 34.85 34.57 34.39 31.89 29.87 28.83 28.35 28.28 30.07 27.83 29.89 29.23 30.77 31.20 32.05 34.08 35.01 35.63 36.61 37.59 37.73 37.42 37.64 37.81 36.06
30.75 30.79 32.60 32.95 34.45 30.73 31.31 27.00 28.56 27.88 29.05 27.02 28.34 27.63 25.95 30.57 30.11 30.68 30.58 35.78 36.61 36.66 36.34 37.10 37.17 32.81 31.85
28.24 28.34 29.05 30.35 29.77 29.91 30.58 30.16 28.98 28.92 29.37 27.37 28.66 28.27 28.53 28.24 28.19 30.33 30.60 30.85 30.72 31.98 35.76 36.15 36.39 34.11 30.28
26.96 27.01 27.59 28.72 29.59 29.96 29.88 29.81 31.14 29.59 31.50 30.08 27.55 27.92 26.54 24.98 24.44 28.24 28.52 29.52 29.41 29.75 30.07 33.66 35.55 36.18 36.53
26.53 27.62 29.10 29.98 30.78 28.30 27.78 27.74 25.55 27.46 28.92 29.63 28.26 27.95 27.76 25.48 24.87 25.59 26.54 26.34 28.67 28.25 27.23 30.65 30.39 29.27 28.75
28.00 28.93 29.54 28.99 27.50 29.49 27.30 27.24 26.95 26.87 30.76 29.98 23.81 27.08 25.25 25.73 25.92 24.92 26.42 23.96 25.50 27.12 28.60 30.34 30.12 29.74 29.69
27.76 27.87 27.83 27.41 26.59 28.18 27.71 26.75 25.46 25.17 26.39 29.29 29.53 28.71 27.69 25.92 23.37 24.23 24.09 25.52 27.55 29.53 29.51 27.76 28.49 28.91 29.41
27.73 27.72 26.74 26.26 25.51 27.82 27.34 26.26 24.66 24.96 25.51 27.26 27.30 25.75 25.40 25.70 28.93 23.89 24.49 24.99 24.38 26.16 27.84 26.55 26.45 27.88 30.15
27.18 26.83 26.69 25.96 25.96 24.14 23.88 24.70 24.05 23.61 23.81 26.01 25.43 22.99 19.58 17.23 23.80 32.60 24.79 23.49 24.66 25.33 26.08 26.19 25.60 27.14 29.07

GFSFLT2_sfc_wetblb_102.txt.gz
Wetbulb
40.31 40.31 41.34 42.42 42.38 43.64 43.97 42.99 42.24 44.45 44.54 44.20 43.91 43.92 43.96 44.18 44.06 43.53 43.03 42.69 42.58 42.79 43.35 43.92 44.85 44.68 44.87
40.33 40.57 41.89 43.03 42.94 39.86 40.27 40.87 38.23 41.39 42.08 42.42 42.65 42.72 42.05 41.48 41.24 40.73 40.55 40.71 40.87 41.34 41.74 42.31 43.08 43.49 43.93
39.66 40.64 39.54 40.07 38.63 37.38 36.43 35.37 37.07 39.81 39.59 39.19 39.47 39.62 39.92 40.09 40.00 39.63 39.22 39.24 40.05 40.41 40.49 40.74 41.31 41.99 42.95
35.92 35.38 35.34 36.04 36.35 33.34 32.25 33.76 33.09 35.87 36.74 36.56 37.18 37.83 38.48 39.20 39.57 39.04 38.27 38.55 39.37 39.60 39.65 40.28 40.91 41.50 42.09
31.98 33.83 32.20 32.23 31.75 32.70 31.26 30.93 30.13 29.56 28.38 28.89 29.54 30.24 31.27 37.99 37.34 37.78 37.61 37.65 38.06 39.06 39.91 40.24 40.54 40.68 40.95
30.23 33.02 32.73 31.77 30.66 29.79 28.98 25.27 24.83 28.14 26.88 26.82 29.21 28.39 30.65 30.98 38.15 37.90 37.00 37.58 38.46 39.32 39.63 39.75 38.90 39.16 39.67
33.84 31.68 30.20 30.19 29.83 27.50 27.09 24.28 22.82 27.66 26.96 25.34 28.01 27.64 30.05 34.54 37.59 36.34 36.39 37.62 38.38 38.73 39.08 37.78 38.01 38.53 38.86
30.86 30.81 30.67 31.30 30.58 28.97 27.26 27.03 27.19 27.50 27.51 21.74 27.29 26.98 28.71 29.30 37.10 35.41 36.00 37.60 37.90 38.37 37.37 37.69 38.31 38.44 38.65
36.52 36.79 36.51 36.03 32.38 27.80 24.56 22.85 22.84 25.38 26.84 25.06 25.52 26.43 27.79 28.31 29.73 35.08 34.86 36.04 36.64 37.11 37.67 37.84 37.82 38.03 35.54
28.63 31.19 32.43 32.57 34.52 28.13 24.72 17.30 19.86 20.94 26.29 21.18 22.93 22.86 19.54 26.84 28.07 28.42 28.08 34.71 36.30 36.96 37.23 36.98 37.53 32.36 29.94
25.50 25.27 27.03 26.55 26.90 27.77 28.11 19.59 17.91 21.18 27.15 20.29 20.25 27.08 21.89 22.35 24.09 26.53 27.59 28.86 28.70 30.24 34.89 35.75 36.16 35.48 28.87
24.58 23.39 23.90 24.21 24.48 25.40 27.19 25.72 25.14 28.59 29.99 25.48 16.20 24.95 24.76 21.89 20.92 24.09 23.14 26.15 25.45 27.59 28.03 32.12 34.42 35.23 35.87
22.79 22.57 23.13 23.04 22.94 27.74 22.82 23.44 18.58 22.10 27.17 26.49 19.82 25.45 26.05 24.57 17.95 22.30 26.22 24.49 26.97 22.65 23.79 25.14 27.73 28.67 26.88
22.15 23.71 23.81 22.72 19.80 19.28 25.94 26.57 25.74 26.45 29.76 29.60 27.66 21.20 24.74 25.42 25.42 24.27 25.82 23.55 18.94 23.39 24.16 29.38 30.77 30.69 28.92
22.25 22.65 23.19 22.00 20.53 25.87 26.38 25.84 24.28 24.35 25.40 28.26 29.06 27.67 27.34 25.66 23.38 24.60 24.34 23.21 23.29 23.58 27.99 28.16 28.32 27.13 27.53
21.48 22.55 20.67 20.92 18.11 15.85 18.51 24.67 23.54 22.53 23.44 24.29 26.98 26.05 25.57 25.21 28.79 23.70 23.30 23.06 22.33 22.07 20.14 19.85 24.48 26.08 27.16
21.85 19.96 18.81 18.05 25.76 15.34 15.67 17.77 17.89 18.29 17.26 16.27 18.32 22.22 15.60 16.77 21.14 29.07 22.95 15.34 23.58 25.05 21.18 23.13 22.85 24.86 26.67

GFSFLT2_sfc_wetblb_105.txt.gz
Wetbulb
41.40 41.89 41.88 41.14 42.46 44.07 44.34 42.96 43.51 46.22 46.32 45.84 45.45 45.30 45.43 45.57 45.77 45.19 44.43 43.67 43.03 43.01 43.42 43.55 44.39 44.47 44.47
40.75 40.63 41.44 42.32 42.83 41.30 41.08 41.50 39.21 42.66 43.56 43.69 43.94 44.47 44.03 43.25 42.77 42.14 41.44 41.15 41.12 41.40 41.58 42.03 42.68 43.12 43.58
39.77 40.76 40.24 40.75 40.09 38.19 36.42 34.23 36.93 41.58 42.12 41.87 41.68 41.33 41.03 40.85 40.72 40.21 39.50 39.31 39.97 40.46 40.59 40.85 41.27 41.79 42.70
39.12 37.57 37.58 38.09 37.51 33.36 31.79 33.09 32.77 35.69 37.30 36.97 38.05 38.47 39.03 39.59 40.20 39.91 38.99 38.48 39.49 40.29 40.32 40.28 40.77 41.36 41.94
33.05 33.02 29.68 31.97 32.25 33.18 31.76 30.45 29.54 29.38 28.58 29.41 29.70 29.92 30.71 37.19 37.09 38.39 38.36 38.39 38.90 39.47 40.11 40.41 40.56 40.85 40.76
34.06 31.18 31.17 31.34 31.56 30.54 29.05 26.66 26.13 27.78 27.40 27.00 28.01 27.32 29.13 29.36 37.20 38.54 37.99 37.93 38.58 39.38 40.03 40.18 40.04 39.10 39.46
33.51 32.70 30.97 31.12 30.55 28.67 27.78 26.19 25.69 27.93 26.87 24.87 27.09 26.64 28.27 33.43 38.97 37.83 37.11 37.38 38.25 39.24 39.70 39.74 38.32 38.48 38.88
32.03 30.51 30.76 31.04 31.32 30.00 28.42 27.70 27.19 27.38 26.92 20.86 25.76 26.25 27.68 28.35 37.35 36.63 35.96 37.17 38.44 38.35 39.21 37.98 38.22 38.76 38.90
36.82 37.31 37.21 36.31 33.34 29.89 27.21 25.08 23.18 25.16 26.14 24.78 24.23 25.56 26.61 27.42 28.93 35.97 35.22 36.04 37.12 38.09 37.81 37.78 38.13 38.15 35.78
28.96 32.56 33.17 34.18 34.90 29.02 26.31 18.78 19.73 20.40 25.85 20.61 21.66 21.82 18.42 25.40 27.47 28.05 27.91 33.99 36.19 36.74 36.97 37.14 37.32 31.86 29.84
25.63 26.88 27.54 27.96 27.41 28.46 27.37 20.33 14.34 16.07 26.63 19.35 12.91 18.73 16.99 18.93 23.14 25.26 26.49 27.38 27.84 29.31 33.38 34.54 35.66 35.02 29.74
25.15 24.90 26.03 25.87 25.75 26.23 26.81 25.26 23.87 21.33 24.69 18.79 12.37 13.86 11.89 13.46 18.23 22.97 21.71 23.76 23.97 26.47 26.82 30.56 33.37 33.93 34.46
24.97 24.98 25.04 24.94 23.14 20.90 22.47 22.91 17.23 20.90 23.49 23.16 24.57 13.66 16.32 13.20 13.79 18.77 25.62 23.69 24.90 19.77 21.02 23.12 24.73 26.82 27.28
24.96 25.17 23.63 20.92 18.20 16.47 15.46 17.30 18.80 24.34 29.57 29.15 27.82 26.58 24.22 25.30 25.00 23.91 25.71 21.04 16.98 18.69 20.46 22.58 26.00 29.30 28.13
24.90 24.80 24.87 21.55 19.93 15.58 16.38 21.89 23.71 23.93 25.06 27.97 29.68 26.79 25.84 23.79 22.67 23.06 24.01 24.33 24.49 17.25 18.57 22.52 22.87 25.34 26.37
24.92 25.42 23.38 20.35 17.41 13.30 13.39 15.49 18.92 20.48 21.71 22.89 22.81 25.99 21.08 22.83 28.25 22.10 24.16 23.57 23.39 18.00 18.68 23.42 23.82 23.73 25.89
23.74 22.67 21.59 20.52 25.25 14.33 14.70 17.27 17.74 15.49 14.41 13.75 13.17 15.17 15.36 16.10 20.99 28.17 21.24 14.62 23.20 23.29 21.66 20.84 20.41 22.34 24.70

GFSFLT2_sfc_wetblb_108.txt.gz
Wetbulb
42.39 41.41 42.89 43.38 44.40 44.55 44.13 43.42 44.06 47.83 47.58 47.24 46.87 46.70 46.82 46.94 47.35 47.08 46.27 45.60 44.55 44.07 44.38 44.05 44.58 44.63 44.22
41.23 41.31 42.29 42.65 42.07 40.91 42.24 41.42 40.08 44.15 44.89 44.94 44.80 45.42 45.78 45.38 44.72 43.98 43.09 42.46 42.29 42.23 41.92 42.14 42.79 43.24 43.44
40.27 41.01 40.71 41.87 40.73 38.96 36.97 35.80 37.42 42.44 43.75 43.85 43.87 43.37 42.76 42.48 42.09 41.49 40.59 40.14 40.56 40.65 40.66 41.02 41.57 42.07 42.66
40.20 38.59 39.02 39.69 39.08 35.59 34.10 33.95 31.79 35.34 37.47 37.34 39.06 39.63 40.19 40.41 41.10 40.62 39.77 38.73 39.31 40.28 40.59 40.43 40.61 41.19 41.80
36.98 36.42 34.83 35.50 36.41 34.36 33.02 29.82 29.12 29.53 28.78 29.68 29.91 29.54 30.99 36.09 36.97 39.21 39.10 38.66 39.11 40.12 40.48 40.73 40.59 40.77 40.91
35.72 35.55 34.24 34.15 33.25 30.64 29.61 25.41 26.69 27.48 27.46 27.46 28.09 27.45 28.86 29.04 36.49 38.71 38.48 38.41 38.72 39.34 40.08 40.55 40.30 39.93 39.59
36.95 36.14 34.25 33.77 30.25 28.14 27.55 25.68 25.98 27.89 27.47 25.89 27.36 26.79 28.15 31.41 38.20 38.94 38.47 37.93 38.28 39.01 39.82 40.27 40.04 39.00 39.09
36.95 35.54 34.21 32.19 31.32 29.50 28.37 27.20 27.25 27.68 27.67 22.64 26.13 26.12 27.46 27.89 36.86 38.18 36.97 37.12 38.37 38.72 38.89 39.87 38.58 38.58 39.06
37.49 37.74 37.68 36.81 32.95 29.69 27.03 26.44 25.14 26.16 26.81 25.54 24.93 25.70 26.20 26.86 28.64 36.79 36.00 36.01 37.53 38.68 38.79 38.36 38.18 38.28 34.77
31.02 31.61 32.92 34.50 35.10 29.03 27.27 24.82 23.56 22.37 26.47 22.63 22.19 22.23 18.46 24.83 26.59 27.35 27.84 34.15 36.31 37.42 37.37 37.21 37.06 31.00 29.86
26.23 27.19 27.99 26.84 28.35 28.77 28.04 24.34 18.36 18.58 27.34 19.87 11.33 16.61 13.59 18.16 22.81 24.79 26.03 26.36 26.78 28.20 32.35 33.91 35.09 34.48 28.95
25.23 25.77 26.23 25.62 26.85 27.88 27.82 27.00 25.52 23.32 24.98 18.20 11.94 12.63 6.98 11.47 17.92 22.40 20.90 22.60 23.86 25.84 26.01 29.83 32.13 33.28 34.18
24.24 24.33 26.28 27.19 25.33 24.22 25.08 24.11 20.70 22.64 23.76 16.92 16.77 8.02 10.42 9.14 12.10 17.16 20.04 21.37 22.34 19.31 20.46 21.81 23.26 25.25 22.68
24.74 25.54 25.21 24.89 23.69 19.87 16.98 17.40 15.68 17.65 24.12 20.15 19.12 24.12 23.71 25.03 24.41 22.91 20.82 19.86 16.53 17.35 18.85 20.83 23.57 25.70 26.33
25.99 25.83 26.30 25.63 23.43 17.84 17.57 16.42 15.89 17.43 21.60 25.95 29.45 27.89 22.44 19.35 17.31 19.82 17.26 23.32 25.64 23.93 17.56 18.97 21.65 24.22 25.90
25.98 26.26 25.74 24.36 22.25 17.23 17.58 17.75 15.86 20.58 23.17 21.76 22.44 25.15 22.46 22.73 27.49 19.10 18.50 23.94 24.60 18.20 21.48 22.73 22.13 22.67 25.30
25.50 25.14 24.65 24.02 26.18 19.85 19.89 19.64 18.21 16.36 16.24 14.76 18.26 21.11 18.60 17.14 22.13 29.54 22.75 17.06 19.59 20.59 21.83 21.35 20.62 21.91 23.17

GFSFLT2_sfc_wetblb_111.txt.gz
Wetbulb
43.73 43.03 43.10 44.00 44.93 45.60 45.44 44.56 45.58 49.18 48.96 48.51 48.33 48.20 48.31 48.57 48.85 48.77 48.19 47.65 46.58 46.15 46.26 45.27 45.39 45.12 44.41
42.17 41.89 42.69 43.44 43.92 43.59 42.95 41.83 41.09 45.63 46.39 46.33 46.19 46.43 46.94 47.26 46.91 46.04 45.01 44.30 43.93 43.99 43.08 42.59 42.94 43.53 43.54
41.46 41.62 41.63 42.46 40.84 39.50 37.93 37.45 38.31 43.17 44.77 45.05 45.75 45.76 45.11 44.62 44.03 43.21 42.29 41.86 41.65 41.35 40.99 41.25 41.97 42.55 42.95
40.97 39.34 40.07 40.78 40.07 36.95 34.98 35.29 34.69 36.23 38.42 38.58 41.44 42.34 42.37 42.27 42.21 41.52 40.51 39.59 39.73 40.61 40.65 40.85 40.99 41.47 41.95
37.34 37.56 36.13 37.01 37.77 36.54 34.90 33.22 31.91 30.93 28.62 28.63 30.05 29.38 31.62 36.38 37.60 40.60 40.39 39.51 39.31 40.43 41.16 41.01 41.04 40.86 41.14
37.05 37.24 36.39 36.79 35.70 34.38 32.49 30.68 31.08 27.58 27.15 26.48 27.92 27.88 29.64 29.36 36.29 38.73 39.18 39.23 39.18 39.81 40.59 41.06 40.83 40.57 40.00
38.57 38.26 37.07 36.59 34.79 32.12 30.98 29.13 25.85 26.50 26.41 24.76 27.43 27.90 28.70 30.93 37.23 39.26 39.11 38.72 38.69 39.25 40.03 40.60 40.72 40.28 39.37
37.36 38.19 37.39 36.14 35.58 34.02 31.12 28.24 27.82 27.19 26.42 23.42 26.53 26.52 28.01 28.15 36.92 39.12 38.40 37.40 37.74 38.69 39.27 40.27 40.39 39.28 38.98
38.72 38.36 38.05 37.54 34.21 31.70 27.40 26.99 23.69 25.71 26.62 26.01 25.70 26.89 27.02 27.34 28.68 37.02 37.00 36.42 37.24 39.17 39.59 39.91 39.17 38.71 34.66
31.35 32.05 32.94 35.60 34.62 29.66 28.37 22.73 24.54 23.84 26.91 25.68 25.13 24.37 21.27 25.23 26.58 27.08 27.89 34.92 36.83 38.12 38.41 38.34 37.76 30.65 29.82
28.99 29.32 28.55 28.58 28.01 27.92 27.59 25.29 20.53 23.01 28.16 24.17 16.15 19.24 17.20 19.34 23.22 24.79 25.81 26.04 26.41 27.75 32.57 34.02 35.04 33.83 28.81
26.49 25.03 24.69 24.73 25.81 28.12 28.28 27.30 27.17 27.37 29.67 22.62 16.92 16.42 9.27 12.56 18.71 22.41 20.63 22.31 23.90 25.72 25.69 29.60 31.24 32.62 34.13
22.74 22.05 22.76 22.87 24.75 24.20 25.62 25.83 25.61 27.26 24.68 19.19 18.54 9.06 11.48 9.61 12.81 17.15 17.59 20.83 21.94 19.36 20.53 21.85 23.16 24.59 22.75
23.11 23.92 25.61 24.10 21.67 23.33 22.72 22.24 22.01 22.64 25.69 20.14 19.63 17.70 13.79 16.30 15.76 14.35 18.36 15.47 15.95 18.18 18.77 20.90 23.25 24.40 24.90
23.97 23.93 25.67 24.91 23.95 22.81 22.51 21.48 20.26 20.17 20.38 23.77 26.11 25.45 25.67 19.11 14.67 18.62 15.73 16.92 20.03 21.04 21.74 18.75 21.20 23.13 24.83
24.65 25.72 25.23 24.81 24.23 22.20 21.65 21.28 20.68 21.17 19.49 21.59 24.52 25.47 23.48 23.45 26.98 14.92 14.74 15.40 20.70 23.58 20.00 21.14 20.99 22.49 24.81
25.65 24.88 25.74 24.93 26.97 23.11 22.18 21.67 20.95 20.78 19.74 17.60 15.81 20.06 15.03 14.33 22.77 29.99 23.02 19.59 23.36 22.87 23.63 23.50 23.35 24.15 23.53

GFSFLT2_sfc_wetblb_114.txt.gz
Wetbulb
45.49 44.32 44.53 44.90 46.28 46.47 46.95 45.90 48.30 50.43 50.43 49.96 49.74 49.68 49.81 50.28 50.59 50.68 50.21 50.06 49.34 48.64 48.46 47.95 47.45 46.62 45.57
44.55 42.27 43.81 44.28 44.73 44.35 43.46 43.18 43.44 47.52 48.06 47.86 47.74 47.79 48.25 48.80 48.90 48.16 47.44 46.71 46.51 46.74 45.36 44.84 44.99 45.13 44.41
44.67 42.23 42.24 43.10 41.92 40.74 40.29 38.44 39.65 44.73 46.12 46.22 46.91 47.15 47.26 46.89 46.13 45.12 44.27 44.00 43.92 43.29 42.63 42.59 43.15 43.74 44.04
42.76 40.49 40.86 41.29 40.71 37.53 36.54 36.38 36.00 37.57 40.61 41.63 43.76 44.98 44.72 44.47 43.92 42.94 41.74 41.30 41.67 41.61 41.27 41.64 42.10 42.78 43.21
39.16 39.03 37.35 37.66 38.31 37.60 36.10 34.56 33.48 33.27 32.64 32.17 31.08 30.35 32.32 37.57 39.25 41.91 41.25 40.21 39.81 40.96 41.35 41.42 41.58 41.80 41.77
37.18 37.81 38.22 38.29 36.84 36.13 33.68 32.38 32.14 32.07 30.87 29.63 28.11 28.01 28.77 28.88 36.88 39.52 40.87 40.46 39.79 40.56 41.44 41.78 41.66 41.10 41.06
38.95 39.05 38.58 38.21 36.67 34.31 33.68 33.25 33.03 28.99 29.39 25.89 26.83 26.51 28.45 30.76 36.90 39.22 39.50 39.71 39.72 40.16 40.72 41.28 41.35 40.79 40.20
36.10 37.05 37.85 37.95 37.18 35.82 33.92 30.07 29.15 29.02 29.31 27.32 25.79 26.74 28.02 29.09 36.68 39.65 39.90 39.41 38.94 39.14 39.81 40.53 40.82 40.75 39.63
39.46 39.66 39.18 38.31 35.42 32.95 30.61 30.67 27.75 27.69 28.30 27.27 26.65 26.22 28.36 28.81 30.13 38.40 39.00 38.09 37.88 38.86 39.86 39.74 40.43 39.81 36.63
31.02 31.77 32.80 34.56 34.28 31.28 32.07 31.15 28.38 27.14 26.77 26.08 23.50 26.14 25.02 26.98 28.24 28.69 29.86 36.08 37.53 38.74 39.49 39.55 39.20 32.28 30.61
29.39 29.64 28.96 29.43 29.48 29.22 29.15 28.94 21.09 19.01 28.58 25.14 22.60 24.23 22.10 25.19 25.32 26.56 27.31 27.53 27.56 29.12 35.07 35.79 36.41 33.98 29.62
27.12 27.37 27.71 27.91 27.65 27.57 27.03 26.00 26.02 25.65 30.24 25.63 21.31 22.64 20.97 20.61 22.96 24.30 23.01 24.05 24.88 26.44 26.40 30.38 32.69 34.23 35.32
25.86 25.75 25.83 22.93 20.39 22.50 23.34 23.88 22.76 27.52 26.29 22.45 22.91 18.05 16.93 16.97 19.17 21.07 21.16 22.52 23.20 20.87 21.80 22.78 24.12 25.11 23.45
23.60 23.36 21.23 18.72 19.12 17.69 17.12 18.01 20.05 21.75 26.25 22.12 23.02 21.57 17.24 18.48 18.65 18.35 20.49 17.08 18.27 19.92 20.27 21.78 24.09 24.89 24.77
21.83 22.28 22.89 21.14 20.38 17.83 18.36 16.87 15.69 17.57 21.92 25.72 26.25 24.25 22.88 20.31 17.81 20.66 18.96 17.70 21.30 20.17 20.58 19.34 22.33 23.88 24.66
23.54 23.95 23.29 22.08 20.68 17.79 17.62 17.30 17.01 20.85 21.07 21.26 25.73 25.55 23.57 24.55 27.16 18.42 18.13 18.46 20.19 22.41 22.67 21.22 19.90 22.83 24.63
25.73 24.38 23.91 23.85 26.15 22.90 20.14 20.61 20.74 20.97 20.02 19.06 18.59 19.46 18.00 17.14 22.82 29.92 21.96 19.10 22.12 22.73 22.40 22.36 21.67 23.61 24.84

GFSFLT2_sfc_wetblb_117.txt.gz
Wetbulb
49.60 48.38 47.56 48.51 48.68 49.55 50.18 49.57 51.38 51.95 51.85 51.64 51.50 51.56 52.07 52.62 52.67 52.39 52.10 51.97 51.98 51.12 50.59 50.43 50.09 49.09 47.39
50.71 47.60 45.95 47.79 48.96 48.29 46.16 46.03 47.20 49.42 49.90 49.58 49.40 49.60 49.95 50.55 50.98 50.52 50.68 49.86 48.99 49.26 48.47 48.30 48.20 47.19 46.01
49.48 45.38 45.07 45.07 44.44 44.06 43.65 41.49 41.98 46.33 48.01 48.07 48.05 48.18 48.71 49.12 48.33 47.27 46.63 46.47 46.67 45.53 44.79 44.61 45.57 45.61 45.45
46.38 43.54 42.96 43.24 43.11 40.17 39.02 38.60 38.37 39.82 43.05 43.86 47.00 47.41 47.20 46.84 45.89 44.97 44.34 44.21 44.11 43.34 42.64 42.70 43.44 44.17 44.87
42.85 41.69 40.15 39.46 39.76 40.54 39.85 36.62 36.12 36.34 35.44 35.71 39.18 38.63 41.68 43.66 43.97 42.83 42.09 41.86 41.79 42.28 42.12 42.27 42.52 43.39 43.74
41.10 39.63 40.60 39.58 38.89 37.42 35.11 34.07 34.25 35.39 33.66 32.79 33.17 35.24 35.71 38.65 38.66 42.18 42.18 41.56 40.71 41.20 41.99 42.07 42.10 42.33 42.62
40.37 40.49 39.69 39.73 37.92 35.64 35.14 35.34 35.83 32.10 32.05 31.37 31.25 31.59 33.72 35.19 36.84 39.72 40.90 41.06 40.61 40.57 41.58 42.10 42.26 41.79 41.69
38.71 38.27 37.89 38.39 38.22 36.81 35.76 32.04 30.48 30.10 31.20 32.22 29.63 30.69 32.57 35.62 36.08 38.99 40.41 40.30 40.26 40.40 40.96 41.63 41.68 41.38 41.19
37.93 38.97 39.71 39.00 36.87 34.69 32.65 32.64 30.10 29.72 30.17 29.98 28.73 29.36 31.40 33.67 35.57 38.21 40.56 40.26 39.60 39.63 40.12 40.74 41.17 41.04 40.39
34.25 33.57 33.08 33.74 34.46 32.97 34.50 33.22 31.35 29.94 30.64 30.15 28.25 30.76 30.82 31.79 32.82 34.64 38.51 38.84 38.70 38.90 40.03 40.50 40.68 39.85 38.70
32.61 31.52 30.73 30.82 30.67 30.46 30.47 32.66 31.57 30.46 30.47 31.47 30.70 29.95 30.23 29.54 30.14 31.94 33.17 34.30 35.43 35.82 39.19 39.88 39.89 38.07 37.29
30.03 29.51 29.42 29.84 29.62 29.30 29.16 29.71 30.21 31.29 33.43 31.39 30.75 30.65 30.03 28.46 28.49 28.83 29.90 31.23 31.90 33.06 33.79 34.70 36.29 37.82 37.56
29.38 29.31 29.96 30.10 28.64 28.88 29.30 29.21 29.12 29.76 29.40 27.90 29.89 27.49 29.35 29.71 28.31 27.76 28.33 29.45 29.85 30.86 30.72 31.49 32.52 32.81 32.67
30.09 29.44 29.02 28.48 28.67 28.37 28.55 28.50 28.74 29.28 29.01 27.94 28.02 28.17 27.35 27.65 27.75 27.23 28.49 27.85 28.22 28.39 29.40 29.50 29.92 30.43 30.58
28.99 28.59 28.11 28.16 27.82 27.08 27.29 27.22 27.29 26.95 27.83 28.73 28.77 28.36 28.66 27.74 26.41 27.40 27.37 26.64 27.52 27.75 27.13 27.72 29.10 29.79 30.04
29.57 29.20 28.72 27.64 27.44 26.55 26.69 26.93 26.54 26.62 26.54 27.68 28.08 27.64 27.53 28.29 29.76 26.99 26.26 26.22 27.14 27.62 27.43 26.04 26.43 29.16 29.32
29.91 29.38 28.71 27.83 28.37 26.72 26.48 26.47 25.80 26.31 26.96 27.05 26.79 25.67 23.26 23.12 26.99 30.72 26.79 25.79 26.35 26.22 27.20 26.57 26.49 28.76 29.07